Wetterdaten: Mittwoch, 14.01.2015
Datum Zeit Temp. Aussen +5cm Feuchte Auss Luftdruck Regen Sonnenschein Regendauer Solar Windben
14.01.2015 00:00 7,4 C 5,6 C 84 % 1006,1 hPa 0,0 l/m 0 min 0 min 0 W/m 25,1 km/h (4 Bft)
14.01.2015 00:02 7,3 C 5,6 C 84 % 1006,1 hPa 0,0 l/m 0 min 0 min 0 W/m 23,0 km/h (4 Bft)
14.01.2015 00:06 7,3 C 5,0 C 84 % 1006,1 hPa 0,0 l/m 0 min 0 min 0 W/m 18,8 km/h (3 Bft)
14.01.2015 00:08 7,3 C 5,0 C 84 % 1005,9 hPa 0,0 l/m 0 min 0 min 0 W/m 18,8 km/h (3 Bft)
14.01.2015 00:10 7,3 C 5,0 C 84 % 1006,0 hPa 0,0 l/m 0 min 0 min 0 W/m 14,6 km/h (3 Bft)
14.01.2015 00:12 7,2 C 5,0 C 85 % 1006,0 hPa 0,0 l/m 0 min 0 min 0 W/m 16,7 km/h (3 Bft)
14.01.2015 00:14 7,2 C 5,0 C 85 % 1006,0 hPa 0,0 l/m 0 min 0 min 0 W/m 20,9 km/h (4 Bft)
14.01.2015 00:16 7,2 C 5,0 C 85 % 1005,9 hPa 0,0 l/m 0 min 0 min 0 W/m 20,9 km/h (4 Bft)
14.01.2015 00:18 7,2 C 5,0 C 85 % 1005,7 hPa 0,0 l/m 0 min 0 min 0 W/m 14,6 km/h (3 Bft)
14.01.2015 00:20 7,2 C 5,0 C 85 % 1005,7 hPa 0,0 l/m 0 min 0 min 0 W/m 23,0 km/h (4 Bft)
14.01.2015 00:22 7,2 C 5,0 C 85 % 1005,6 hPa 0,0 l/m 0 min 0 min 0 W/m 25,1 km/h (4 Bft)
14.01.2015 00:24 7,2 C 5,0 C 85 % 1005,6 hPa 0,0 l/m 0 min 0 min 0 W/m 20,9 km/h (4 Bft)
14.01.2015 00:26 7,1 C 5,0 C 86 % 1005,6 hPa 0,0 l/m 0 min 0 min 0 W/m 23,0 km/h (4 Bft)
14.01.2015 00:28 7,1 C 5,0 C 86 % 1005,6 hPa 0,0 l/m 0 min 0 min 0 W/m 23,0 km/h (4 Bft)
14.01.2015 00:30 7,1 C 5,0 C 86 % 1005,5 hPa 0,0 l/m 0 min 0 min 0 W/m 20,9 km/h (4 Bft)
14.01.2015 00:32 7,1 C 5,0 C 86 % 1005,4 hPa 0,0 l/m 0 min 0 min 0 W/m 18,8 km/h (3 Bft)
14.01.2015 00:34 7,1 C 5,0 C 87 % 1005,4 hPa 0,0 l/m 0 min 0 min 0 W/m 12,6 km/h (3 Bft)
14.01.2015 00:36 7,1 C 5,0 C 86 % 1005,3 hPa 0,0 l/m 0 min 0 min 0 W/m 18,8 km/h (3 Bft)
14.01.2015 00:38 7,1 C 5,0 C 87 % 1005,2 hPa 0,0 l/m 0 min 0 min 0 W/m 25,1 km/h (4 Bft)
14.01.2015 00:40 7,0 C 5,0 C 87 % 1005,3 hPa 0,0 l/m 0 min 0 min 0 W/m 25,1 km/h (4 Bft)
14.01.2015 00:42 7,0 C 5,0 C 87 % 1005,1 hPa 0,0 l/m 0 min 0 min 0 W/m 16,7 km/h (3 Bft)
14.01.2015 00:44 7,0 C 5,6 C 87 % 1005,1 hPa 0,0 l/m 0 min 0 min 0 W/m 20,9 km/h (4 Bft)
14.01.2015 00:46 7,0 C 5,6 C 88 % 1005,0 hPa 0,0 l/m 0 min 0 min 0 W/m 27,2 km/h (4 Bft)
14.01.2015 00:48 7,0 C 5,6 C 88 % 1005,0 hPa 0,0 l/m 0 min 0 min 0 W/m 29,3 km/h (5 Bft)
14.01.2015 00:50 7,1 C 5,6 C 88 % 1005,0 hPa 0,0 l/m 0 min 0 min 0 W/m 18,8 km/h (3 Bft)
14.01.2015 00:52 7,1 C 5,6 C 88 % 1004,9 hPa 0,0 l/m 0 min 0 min 0 W/m 27,2 km/h (4 Bft)
14.01.2015 00:54 7,1 C 5,6 C 88 % 1004,9 hPa 0,0 l/m 0 min 0 min 0 W/m 25,1 km/h (4 Bft)
14.01.2015 00:56 7,1 C 5,6 C 88 % 1004,9 hPa 0,0 l/m 0 min 0 min 0 W/m 29,3 km/h (5 Bft)
14.01.2015 00:58 7,1 C 5,6 C 88 % 1004,9 hPa 0,0 l/m 0 min 0 min 0 W/m 20,9 km/h (4 Bft)
14.01.2015 01:00 7,2 C 6,1 C 88 % 1004,9 hPa 0,0 l/m 0 min 0 min 0 W/m 31,4 km/h (5 Bft)
14.01.2015 01:02 7,2 C 6,1 C 88 % 1005,0 hPa 0,0 l/m 0 min 0 min 0 W/m 20,9 km/h (4 Bft)
14.01.2015 01:04 7,2 C 6,1 C 88 % 1004,9 hPa 0,0 l/m 0 min 0 min 0 W/m 20,9 km/h (4 Bft)
14.01.2015 01:06 7,3 C 6,1 C 88 % 1005,1 hPa 0,0 l/m 0 min 0 min 0 W/m 41,8 km/h (6 Bft)
14.01.2015 01:08 7,3 C 6,1 C 88 % 1005,2 hPa 0,0 l/m 0 min 0 min 0 W/m 35,6 km/h (5 Bft)
14.01.2015 01:10 7,3 C 5,6 C 88 % 1005,2 hPa 0,0 l/m 0 min 0 min 0 W/m 41,8 km/h (6 Bft)
14.01.2015 01:12 7,4 C 5,6 C 88 % 1005,1 hPa 0,0 l/m 0 min 0 min 0 W/m 33,5 km/h (5 Bft)
14.01.2015 01:14 7,4 C 5,6 C 87 % 1005,3 hPa 0,0 l/m 0 min 0 min 0 W/m 39,7 km/h (6 Bft)
14.01.2015 01:16 7,4 C 5,6 C 87 % 1005,1 hPa 0,0 l/m 0 min 0 min 0 W/m 37,7 km/h (5 Bft)
14.01.2015 01:18 7,4 C 5,6 C 85 % 1005,1 hPa 0,0 l/m 0 min 0 min 0 W/m 27,2 km/h (4 Bft)
14.01.2015 01:20 7,5 C 5,6 C 85 % 1005,2 hPa 0,0 l/m 0 min 0 min 0 W/m 46,0 km/h (6 Bft)
14.01.2015 01:22 7,5 C 5,6 C 84 % 1005,2 hPa 0,0 l/m 0 min 0 min 0 W/m 31,4 km/h (5 Bft)
14.01.2015 01:24 7,5 C 5,6 C 83 % 1005,4 hPa 0,0 l/m 0 min 0 min 0 W/m 33,5 km/h (5 Bft)
14.01.2015 01:26 7,5 C 5,6 C 83 % 1005,3 hPa 0,0 l/m 0 min 0 min 0 W/m 39,7 km/h (6 Bft)
14.01.2015 01:28 7,6 C 5,6 C 83 % 1005,1 hPa 0,0 l/m 0 min 0 min 0 W/m 29,3 km/h (5 Bft)
14.01.2015 01:30 7,6 C 5,6 C 83 % 1005,1 hPa 0,0 l/m 0 min 0 min 0 W/m 31,4 km/h (5 Bft)
14.01.2015 01:32 7,5 C 5,6 C 83 % 1005,0 hPa 0,0 l/m 0 min 0 min 0 W/m 29,3 km/h (5 Bft)
14.01.2015 01:34 7,5 C 5,6 C 83 % 1005,0 hPa 0,0 l/m 0 min 0 min 0 W/m 27,2 km/h (4 Bft)
14.01.2015 01:36 7,5 C 5,6 C 83 % 1005,1 hPa 0,0 l/m 0 min 0 min 0 W/m 29,3 km/h (5 Bft)
14.01.2015 01:38 7,4 C 5,6 C 83 % 1005,0 hPa 0,0 l/m 0 min 0 min 0 W/m 29,3 km/h (5 Bft)
14.01.2015 01:40 7,4 C 5,6 C 83 % 1004,9 hPa 0,0 l/m 0 min 0 min 0 W/m 14,6 km/h (3 Bft)
14.01.2015 01:42 7,4 C 5,6 C 83 % 1004,9 hPa 0,0 l/m 0 min 0 min 0 W/m 18,8 km/h (3 Bft)
14.01.2015 01:44 7,4 C 5,6 C 84 % 1004,8 hPa 0,0 l/m 0 min 0 min 0 W/m 27,2 km/h (4 Bft)
14.01.2015 01:46 7,3 C 5,6 C 84 % 1004,8 hPa 0,0 l/m 0 min 0 min 0 W/m 37,7 km/h (5 Bft)
14.01.2015 01:48 7,3 C 5,6 C 84 % 1004,9 hPa 0,0 l/m 0 min 0 min 0 W/m 23,0 km/h (4 Bft)
14.01.2015 01:50 7,3 C 5,6 C 84 % 1004,8 hPa 0,0 l/m 0 min 0 min 0 W/m 25,1 km/h (4 Bft)
14.01.2015 01:52 7,2 C 5,6 C 84 % 1004,9 hPa 0,0 l/m 0 min 0 min 0 W/m 23,0 km/h (4 Bft)
14.01.2015 01:54 7,2 C 5,6 C 84 % 1004,7 hPa 0,0 l/m 0 min 0 min 0 W/m 18,8 km/h (3 Bft)
14.01.2015 01:56 7,2 C 5,6 C 85 % 1004,7 hPa 0,0 l/m 0 min 0 min 0 W/m 20,9 km/h (4 Bft)
14.01.2015 01:58 7,2 C 5,6 C 85 % 1004,8 hPa 0,0 l/m 0 min 0 min 0 W/m 29,3 km/h (5 Bft)
14.01.2015 02:00 7,1 C 5,6 C 85 % 1004,7 hPa 0,0 l/m 0 min 0 min 0 W/m 18,8 km/h (3 Bft)
14.01.2015 02:02 7,1 C 5,6 C 85 % 1004,8 hPa 0,0 l/m 0 min 0 min 0 W/m 25,1 km/h (4 Bft)
14.01.2015 02:04 7,1 C 5,6 C 85 % 1004,6 hPa 0,0 l/m 0 min 0 min 0 W/m 18,8 km/h (3 Bft)
14.01.2015 02:06 7,1 C 5,0 C 85 % 1004,6 hPa 0,0 l/m 0 min 0 min 0 W/m 16,7 km/h (3 Bft)
14.01.2015 02:08 7,1 C 5,0 C 85 % 1004,5 hPa 0,0 l/m 0 min 0 min 0 W/m 12,6 km/h (3 Bft)
14.01.2015 02:10 7,0 C 5,0 C 85 % 1004,6 hPa 0,0 l/m 0 min 0 min 0 W/m 14,6 km/h (3 Bft)
14.01.2015 02:12 6,9 C 5,0 C 85 % 1004,6 hPa 0,0 l/m 0 min 0 min 0 W/m 12,6 km/h (3 Bft)
14.01.2015 02:14 6,9 C 5,0 C 85 % 1004,5 hPa 0,0 l/m 0 min 0 min 0 W/m 14,6 km/h (3 Bft)
14.01.2015 02:16 6,9 C 5,0 C 85 % 1004,5 hPa 0,0 l/m 0 min 0 min 0 W/m 18,8 km/h (3 Bft)
14.01.2015 02:18 6,9 C 5,0 C 85 % 1004,5 hPa 0,0 l/m 0 min 0 min 0 W/m 12,6 km/h (3 Bft)
14.01.2015 02:20 6,9 C 5,0 C 85 % 1004,4 hPa 0,0 l/m 0 min 0 min 0 W/m 14,6 km/h (3 Bft)
14.01.2015 02:22 6,8 C 5,0 C 86 % 1004,3 hPa 0,0 l/m 0 min 0 min 0 W/m 23,0 km/h (4 Bft)
14.01.2015 02:24 6,8 C 5,0 C 86 % 1004,3 hPa 0,0 l/m 0 min 0 min 0 W/m 20,9 km/h (4 Bft)
14.01.2015 02:26 6,8 C 5,0 C 86 % 1004,4 hPa 0,0 l/m 0 min 0 min 0 W/m 20,9 km/h (4 Bft)
14.01.2015 02:28 6,8 C 5,0 C 86 % 1004,3 hPa 0,0 l/m 0 min 0 min 0 W/m 14,6 km/h (3 Bft)
14.01.2015 02:30 6,8 C 5,0 C 86 % 1004,1 hPa 0,0 l/m 0 min 0 min 0 W/m 16,7 km/h (3 Bft)
14.01.2015 02:32 6,8 C 5,0 C 86 % 1004,0 hPa 0,0 l/m 0 min 0 min 0 W/m 14,6 km/h (3 Bft)
14.01.2015 02:34 6,7 C 5,0 C 87 % 1003,9 hPa 0,0 l/m 0 min 0 min 0 W/m 23,0 km/h (4 Bft)
14.01.2015 02:36 6,7 C 5,0 C 87 % 1004,0 hPa 0,0 l/m 0 min 0 min 0 W/m 20,9 km/h (4 Bft)
14.01.2015 02:38 6,7 C 5,0 C 87 % 1004,1 hPa 0,0 l/m 0 min 0 min 0 W/m 16,7 km/h (3 Bft)
14.01.2015 02:40 6,7 C 5,0 C 87 % 1004,1 hPa 0,0 l/m 0 min 0 min 0 W/m 23,0 km/h (4 Bft)
14.01.2015 02:42 6,7 C 5,0 C 87 % 1004,1 hPa 0,0 l/m 0 min 0 min 0 W/m 18,8 km/h (3 Bft)
14.01.2015 02:44 6,7 C 5,6 C 88 % 1004,1 hPa 0,0 l/m 0 min 0 min 0 W/m 25,1 km/h (4 Bft)
14.01.2015 02:46 6,8 C 5,6 C 88 % 1004,1 hPa 0,0 l/m 0 min 0 min 0 W/m 23,0 km/h (4 Bft)
14.01.2015 02:48 6,8 C 5,6 C 88 % 1004,2 hPa 0,0 l/m 0 min 0 min 0 W/m 20,9 km/h (4 Bft)
14.01.2015 02:50 6,8 C 5,6 C 88 % 1004,3 hPa 0,0 l/m 0 min 0 min 0 W/m 27,2 km/h (4 Bft)
14.01.2015 02:52 6,8 C 5,6 C 88 % 1004,4 hPa 0,0 l/m 0 min 0 min 0 W/m 31,4 km/h (5 Bft)
14.01.2015 02:54 6,9 C 6,1 C 88 % 1004,4 hPa 0,0 l/m 0 min 2 min 0 W/m 52,3 km/h (7 Bft)
14.01.2015 02:56 7,0 C 5,6 C 89 % 1004,7 hPa 0,2 l/m 0 min 2 min 0 W/m 50,2 km/h (7 Bft)
14.01.2015 02:58 7,0 C 4,4 C 88 % 1005,0 hPa 0,4 l/m 0 min 2 min 0 W/m 56,5 km/h (7 Bft)
14.01.2015 03:00 6,8 C 2,8 C 87 % 1005,5 hPa 0,4 l/m 0 min 2 min 0 W/m 52,3 km/h (7 Bft)
14.01.2015 03:02 6,4 C 2,8 C 86 % 1005,4 hPa 0,4 l/m 0 min 2 min 0 W/m 43,9 km/h (6 Bft)
14.01.2015 03:04 6,1 C 2,8 C 86 % 1005,3 hPa 0,2 l/m 0 min 2 min 0 W/m 46,0 km/h (6 Bft)
14.01.2015 03:06 5,7 C 2,8 C 86 % 1005,5 hPa 0,4 l/m 0 min 2 min 0 W/m 33,5 km/h (5 Bft)
14.01.2015 03:08 5,5 C 2,8 C 87 % 1005,6 hPa 0,0 l/m 0 min 2 min 0 W/m 23,0 km/h (4 Bft)
14.01.2015 03:10 5,3 C 2,8 C 87 % 1005,8 hPa 0,2 l/m 0 min 2 min 0 W/m 31,4 km/h (5 Bft)
14.01.2015 03:12 5,1 C 2,8 C 88 % 1005,8 hPa 0,2 l/m 0 min 2 min 0 W/m 33,5 km/h (5 Bft)
14.01.2015 03:14 4,9 C 2,8 C 88 % 1005,9 hPa 0,0 l/m 0 min 2 min 0 W/m 35,6 km/h (5 Bft)
14.01.2015 03:16 4,8 C 2,8 C 89 % 1006,0 hPa 0,0 l/m 0 min 2 min 0 W/m 33,5 km/h (5 Bft)
14.01.2015 03:18 4,7 C 2,8 C 89 % 1006,0 hPa 0,0 l/m 0 min 2 min 0 W/m 37,7 km/h (5 Bft)
14.01.2015 03:20 4,6 C 2,8 C 89 % 1006,0 hPa 0,2 l/m 0 min 2 min 0 W/m 33,5 km/h (5 Bft)
14.01.2015 03:22 4,6 C 2,8 C 90 % 1006,0 hPa 0,2 l/m 0 min 2 min 0 W/m 43,9 km/h (6 Bft)
14.01.2015 03:24 4,5 C 2,8 C 90 % 1006,1 hPa 0,0 l/m 0 min 2 min 0 W/m 37,7 km/h (5 Bft)
14.01.2015 03:26 4,5 C 2,8 C 91 % 1006,1 hPa 0,2 l/m 0 min 2 min 0 W/m 46,0 km/h (6 Bft)
14.01.2015 03:28 4,4 C 2,8 C 91 % 1006,1 hPa 0,2 l/m 0 min 0 min 0 W/m 29,3 km/h (5 Bft)
14.01.2015 03:30 4,4 C 2,8 C 91 % 1006,3 hPa 0,2 l/m 0 min 0 min 0 W/m 27,2 km/h (4 Bft)
14.01.2015 03:32 4,3 C 2,8 C 92 % 1006,4 hPa 0,0 l/m 0 min 0 min 0 W/m 35,6 km/h (5 Bft)
14.01.2015 03:34 4,3 C 2,8 C 92 % 1006,4 hPa 0,0 l/m 0 min 0 min 0 W/m 31,4 km/h (5 Bft)
14.01.2015 03:36 4,3 C 2,8 C 92 % 1006,3 hPa 0,2 l/m 0 min 0 min 0 W/m 25,1 km/h (4 Bft)
14.01.2015 03:38 4,2 C 2,8 C 92 % 1006,2 hPa 0,0 l/m 0 min 0 min 0 W/m 20,9 km/h (4 Bft)
14.01.2015 03:40 4,2 C 2,8 C 92 % 1006,4 hPa 0,0 l/m 0 min 0 min 0 W/m 25,1 km/h (4 Bft)
14.01.2015 03:42 4,2 C 2,8 C 92 % 1006,4 hPa 0,0 l/m 0 min 0 min 0 W/m 25,1 km/h (4 Bft)
14.01.2015 03:44 4,1 C 2,8 C 93 % 1006,4 hPa 0,0 l/m 0 min 0 min 0 W/m 31,4 km/h (5 Bft)
14.01.2015 03:46 4,1 C 2,8 C 93 % 1006,6 hPa 0,0 l/m 0 min 0 min 0 W/m 27,2 km/h (4 Bft)
14.01.2015 03:48 4,1 C 2,8 C 93 % 1006,6 hPa 0,0 l/m 0 min 0 min 0 W/m 29,3 km/h (5 Bft)
14.01.2015 03:50 4,1 C 2,8 C 93 % 1006,6 hPa 0,0 l/m 0 min 0 min 0 W/m 33,5 km/h (5 Bft)
14.01.2015 03:52 4,1 C 2,8 C 93 % 1006,4 hPa 0,0 l/m 0 min 0 min 0 W/m 27,2 km/h (4 Bft)
14.01.2015 03:54 4,0 C 2,8 C 93 % 1006,3 hPa 0,0 l/m 0 min 0 min 0 W/m 27,2 km/h (4 Bft)
14.01.2015 03:56 4,0 C 2,8 C 93 % 1006,2 hPa 0,0 l/m 0 min 0 min 0 W/m 20,9 km/h (4 Bft)
14.01.2015 03:58 4,0 C 2,8 C 93 % 1006,2 hPa 0,0 l/m 0 min 0 min 0 W/m 25,1 km/h (4 Bft)
14.01.2015 04:00 3,9 C 2,8 C 93 % 1006,0 hPa 0,0 l/m 0 min 0 min 0 W/m 27,2 km/h (4 Bft)
14.01.2015 04:02 3,9 C 2,2 C 93 % 1005,8 hPa 0,0 l/m 0 min 0 min 0 W/m 16,7 km/h (3 Bft)
14.01.2015 04:04 3,9 C 2,2 C 94 % 1005,7 hPa 0,0 l/m 0 min 0 min 0 W/m 12,6 km/h (3 Bft)
14.01.2015 04:06 3,9 C 2,2 C 94 % 1005,6 hPa 0,0 l/m 0 min 0 min 0 W/m 18,8 km/h (3 Bft)
14.01.2015 04:08 3,9 C 2,2 C 93 % 1005,8 hPa 0,0 l/m 0 min 0 min 0 W/m 18,8 km/h (3 Bft)
14.01.2015 04:10 3,9 C 2,2 C 93 % 1005,9 hPa 0,0 l/m 0 min 0 min 0 W/m 20,9 km/h (4 Bft)
14.01.2015 04:12 3,9 C 2,2 C 93 % 1006,0 hPa 0,0 l/m 0 min 0 min 0 W/m 14,6 km/h (3 Bft)
14.01.2015 04:14 3,8 C 2,8 C 93 % 1006,3 hPa 0,0 l/m 0 min 0 min 0 W/m 27,2 km/h (4 Bft)
14.01.2015 04:16 3,8 C 2,2 C 94 % 1006,4 hPa 0,0 l/m 0 min 0 min 0 W/m 16,7 km/h (3 Bft)
14.01.2015 04:18 3,8 C 2,2 C 94 % 1006,4 hPa 0,0 l/m 0 min 0 min 0 W/m 29,3 km/h (5 Bft)
14.01.2015 04:20 3,8 C 2,2 C 94 % 1006,5 hPa 0,0 l/m 0 min 0 min 0 W/m 23,0 km/h (4 Bft)
14.01.2015 04:22 3,8 C 2,2 C 94 % 1006,6 hPa 0,0 l/m 0 min 0 min 0 W/m 25,1 km/h (4 Bft)
14.01.2015 04:24 3,7 C 2,2 C 94 % 1006,5 hPa 0,0 l/m 0 min 0 min 0 W/m 25,1 km/h (4 Bft)
14.01.2015 04:26 3,7 C 2,2 C 94 % 1006,6 hPa 0,0 l/m 0 min 0 min 0 W/m 27,2 km/h (4 Bft)
14.01.2015 04:28 3,7 C 2,2 C 94 % 1006,6 hPa 0,0 l/m 0 min 0 min 0 W/m 27,2 km/h (4 Bft)
14.01.2015 04:30 3,7 C 2,2 C 94 % 1006,6 hPa 0,0 l/m 0 min 0 min 0 W/m 31,4 km/h (5 Bft)
14.01.2015 04:32 3,6 C 2,2 C 94 % 1006,6 hPa 0,0 l/m 0 min 0 min 0 W/m 29,3 km/h (5 Bft)
14.01.2015 04:34 3,6 C 2,2 C 93 % 1006,6 hPa 0,0 l/m 0 min 0 min 0 W/m 14,6 km/h (3 Bft)
14.01.2015 04:36 3,6 C 2,2 C 93 % 1006,7 hPa 0,0 l/m 0 min 0 min 0 W/m 25,1 km/h (4 Bft)
14.01.2015 04:38 3,5 C 2,2 C 93 % 1006,8 hPa 0,0 l/m 0 min 0 min 0 W/m 33,5 km/h (5 Bft)
14.01.2015 04:40 3,5 C 2,2 C 93 % 1006,9 hPa 0,0 l/m 0 min 0 min 0 W/m 27,2 km/h (4 Bft)
14.01.2015 04:42 3,5 C 2,2 C 93 % 1006,8 hPa 0,0 l/m 0 min 0 min 0 W/m 29,3 km/h (5 Bft)
14.01.2015 04:44 3,5 C 2,2 C 93 % 1006,9 hPa 0,0 l/m 0 min 0 min 0 W/m 20,9 km/h (4 Bft)
14.01.2015 04:46 3,5 C 2,2 C 93 % 1006,9 hPa 0,0 l/m 0 min 0 min 0 W/m 29,3 km/h (5 Bft)
14.01.2015 04:48 3,5 C 2,2 C 93 % 1006,9 hPa 0,0 l/m 0 min 0 min 0 W/m 29,3 km/h (5 Bft)
14.01.2015 04:50 3,5 C 2,2 C 93 % 1007,0 hPa 0,0 l/m 0 min 0 min 0 W/m 27,2 km/h (4 Bft)
14.01.2015 04:52 3,5 C 2,2 C 93 % 1006,9 hPa 0,0 l/m 0 min 0 min 0 W/m 25,1 km/h (4 Bft)
14.01.2015 04:54 3,5 C 2,2 C 93 % 1007,1 hPa 0,0 l/m 0 min 0 min 0 W/m 37,7 km/h (5 Bft)
14.01.2015 04:56 3,5 C 2,2 C 93 % 1007,1 hPa 0,0 l/m 0 min 0 min 0 W/m 27,2 km/h (4 Bft)
14.01.2015 04:58 3,5 C 2,2 C 93 % 1007,1 hPa 0,0 l/m 0 min 0 min 0 W/m 33,5 km/h (5 Bft)
14.01.2015 05:00 3,5 C 2,2 C 93 % 1007,2 hPa 0,0 l/m 0 min 0 min 0 W/m 29,3 km/h (5 Bft)
14.01.2015 05:02 3,5 C 2,2 C 93 % 1007,2 hPa 0,0 l/m 0 min 0 min 0 W/m 31,4 km/h (5 Bft)
14.01.2015 05:04 3,5 C 2,2 C 93 % 1007,1 hPa 0,0 l/m 0 min 0 min 0 W/m 25,1 km/h (4 Bft)
14.01.2015 05:06 3,5 C 2,2 C 93 % 1007,2 hPa 0,0 l/m 0 min 0 min 0 W/m 31,4 km/h (5 Bft)
14.01.2015 05:08 3,5 C 2,2 C 93 % 1007,1 hPa 0,0 l/m 0 min 0 min 0 W/m 37,7 km/h (5 Bft)
14.01.2015 05:10 3,5 C 2,2 C 93 % 1007,1 hPa 0,0 l/m 0 min 0 min 0 W/m 33,5 km/h (5 Bft)
14.01.2015 05:12 3,5 C 2,2 C 93 % 1007,2 hPa 0,0 l/m 0 min 0 min 0 W/m 31,4 km/h (5 Bft)
14.01.2015 05:14 3,5 C 2,2 C 93 % 1007,2 hPa 0,0 l/m 0 min 0 min 0 W/m 33,5 km/h (5 Bft)
14.01.2015 05:16 3,5 C 2,2 C 93 % 1007,4 hPa 0,0 l/m 0 min 0 min 0 W/m 27,2 km/h (4 Bft)
14.01.2015 05:18 3,6 C 2,2 C 93 % 1007,3 hPa 0,0 l/m 0 min 0 min 0 W/m 18,8 km/h (3 Bft)
14.01.2015 05:20 3,6 C 2,2 C 93 % 1007,3 hPa 0,0 l/m 0 min 0 min 0 W/m 31,4 km/h (5 Bft)
14.01.2015 05:22 3,6 C 2,2 C 93 % 1007,4 hPa 0,0 l/m 0 min 0 min 0 W/m 27,2 km/h (4 Bft)
14.01.2015 05:24 3,6 C 2,2 C 93 % 1007,6 hPa 0,0 l/m 0 min 0 min 0 W/m 31,4 km/h (5 Bft)
14.01.2015 05:26 3,6 C 2,2 C 93 % 1007,6 hPa 0,0 l/m 0 min 0 min 0 W/m 20,9 km/h (4 Bft)
14.01.2015 05:28 3,6 C 2,2 C 93 % 1007,6 hPa 0,0 l/m 0 min 0 min 0 W/m 29,3 km/h (5 Bft)
14.01.2015 05:30 3,6 C 2,2 C 93 % 1007,7 hPa 0,0 l/m 0 min 0 min 0 W/m 35,6 km/h (5 Bft)
14.01.2015 05:32 3,6 C 2,2 C 93 % 1007,7 hPa 0,0 l/m 0 min 0 min 0 W/m 33,5 km/h (5 Bft)
14.01.2015 05:34 3,6 C 2,2 C 93 % 1007,7 hPa 0,0 l/m 0 min 0 min 0 W/m 35,6 km/h (5 Bft)
14.01.2015 05:36 3,6 C 2,2 C 92 % 1007,8 hPa 0,0 l/m 0 min 0 min 0 W/m 43,9 km/h (6 Bft)
14.01.2015 05:38 3,6 C 2,2 C 92 % 1007,7 hPa 0,0 l/m 0 min 0 min 0 W/m 31,4 km/h (5 Bft)
14.01.2015 05:40 3,7 C 2,2 C 93 % 1007,8 hPa 0,0 l/m 0 min 0 min 0 W/m 29,3 km/h (5 Bft)
14.01.2015 05:42 3,7 C 2,2 C 92 % 1007,8 hPa 0,0 l/m 0 min 0 min 0 W/m 27,2 km/h (4 Bft)
14.01.2015 05:44 3,7 C 2,2 C 92 % 1007,7 hPa 0,0 l/m 0 min 0 min 0 W/m 41,8 km/h (6 Bft)
14.01.2015 05:46 3,7 C 2,2 C 92 % 1007,8 hPa 0,0 l/m 0 min 0 min 0 W/m 29,3 km/h (5 Bft)
14.01.2015 05:48 3,7 C 2,2 C 92 % 1007,8 hPa 0,0 l/m 0 min 0 min 0 W/m 35,6 km/h (5 Bft)
14.01.2015 05:50 3,7 C 2,2 C 92 % 1007,8 hPa 0,0 l/m 0 min 0 min 0 W/m 33,5 km/h (5 Bft)
14.01.2015 05:52 3,7 C 2,2 C 92 % 1007,9 hPa 0,0 l/m 0 min 0 min 0 W/m 37,7 km/h (5 Bft)
14.01.2015 05:54 3,7 C 2,2 C 92 % 1007,9 hPa 0,0 l/m 0 min 0 min 0 W/m 29,3 km/h (5 Bft)
14.01.2015 05:56 3,7 C 2,2 C 92 % 1007,9 hPa 0,0 l/m 0 min 0 min 0 W/m 35,6 km/h (5 Bft)
14.01.2015 05:58 3,8 C 2,2 C 92 % 1007,8 hPa 0,0 l/m 0 min 0 min 0 W/m 33,5 km/h (5 Bft)
14.01.2015 06:00 3,8 C 2,2 C 92 % 1007,9 hPa 0,0 l/m 0 min 0 min 0 W/m 27,2 km/h (4 Bft)
14.01.2015 06:02 3,8 C 2,2 C 92 % 1007,8 hPa 0,0 l/m 0 min 0 min 0 W/m 33,5 km/h (5 Bft)
14.01.2015 06:06 3,8 C 2,8 C 92 % 1007,9 hPa 0,0 l/m 0 min 0 min 0 W/m 39,7 km/h (6 Bft)
14.01.2015 06:08 3,8 C 2,8 C 92 % 1007,9 hPa 0,0 l/m 0 min 0 min 0 W/m 35,6 km/h (5 Bft)
14.01.2015 06:10 3,8 C 2,8 C 92 % 1007,9 hPa 0,0 l/m 0 min 0 min 0 W/m 33,5 km/h (5 Bft)
14.01.2015 06:12 3,9 C 2,8 C 92 % 1008,0 hPa 0,0 l/m 0 min 0 min 0 W/m 31,4 km/h (5 Bft)
14.01.2015 06:14 3,9 C 2,8 C 92 % 1008,0 hPa 0,0 l/m 0 min 0 min 0 W/m 29,3 km/h (5 Bft)
14.01.2015 06:16 3,9 C 2,8 C 92 % 1008,0 hPa 0,0 l/m 0 min 0 min 0 W/m 35,6 km/h (5 Bft)
14.01.2015 06:18 3,9 C 2,8 C 91 % 1008,0 hPa 0,0 l/m 0 min 0 min 0 W/m 29,3 km/h (5 Bft)
14.01.2015 06:20 3,9 C 2,8 C 91 % 1008,0 hPa 0,0 l/m 0 min 0 min 0 W/m 43,9 km/h (6 Bft)
14.01.2015 06:22 3,9 C 2,8 C 91 % 1008,0 hPa 0,0 l/m 0 min 0 min 0 W/m 31,4 km/h (5 Bft)
14.01.2015 06:24 4,0 C 2,8 C 91 % 1008,0 hPa 0,0 l/m 0 min 0 min 0 W/m 46,0 km/h (6 Bft)
14.01.2015 06:26 4,0 C 2,8 C 91 % 1008,1 hPa 0,0 l/m 0 min 0 min 0 W/m 31,4 km/h (5 Bft)
14.01.2015 06:28 4,0 C 2,8 C 91 % 1008,1 hPa 0,0 l/m 0 min 0 min 0 W/m 31,4 km/h (5 Bft)
14.01.2015 06:30 4,1 C 2,8 C 91 % 1008,0 hPa 0,0 l/m 0 min 0 min 0 W/m 33,5 km/h (5 Bft)
14.01.2015 06:32 4,1 C 2,8 C 91 % 1008,1 hPa 0,0 l/m 0 min 0 min 0 W/m 41,8 km/h (6 Bft)
14.01.2015 06:34 4,1 C 2,8 C 90 % 1008,0 hPa 0,0 l/m 0 min 0 min 0 W/m 41,8 km/h (6 Bft)
14.01.2015 06:36 4,1 C 2,8 C 90 % 1008,1 hPa 0,0 l/m 0 min 0 min 0 W/m 46,0 km/h (6 Bft)
14.01.2015 06:38 4,1 C 2,8 C 90 % 1008,1 hPa 0,0 l/m 0 min 0 min 0 W/m 50,2 km/h (7 Bft)
14.01.2015 06:40 4,1 C 2,8 C 90 % 1008,1 hPa 0,0 l/m 0 min 0 min 0 W/m 46,0 km/h (6 Bft)
14.01.2015 06:42 4,1 C 2,8 C 89 % 1008,1 hPa 0,0 l/m 0 min 0 min 0 W/m 58,6 km/h (7 Bft)
14.01.2015 06:44 4,1 C 2,2 C 89 % 1008,1 hPa 0,0 l/m 0 min 0 min 0 W/m 48,1 km/h (6 Bft)
14.01.2015 06:46 4,1 C 2,2 C 89 % 1008,1 hPa 0,0 l/m 0 min 0 min 0 W/m 41,8 km/h (6 Bft)
14.01.2015 06:48 4,1 C 2,2 C 89 % 1008,0 hPa 0,0 l/m 0 min 0 min 0 W/m 29,3 km/h (5 Bft)
14.01.2015 06:50 4,1 C 2,2 C 89 % 1008,0 hPa 0,0 l/m 0 min 0 min 0 W/m 31,4 km/h (5 Bft)
14.01.2015 06:52 4,1 C 2,2 C 89 % 1008,0 hPa 0,0 l/m 0 min 0 min 0 W/m 43,9 km/h (6 Bft)
14.01.2015 06:54 4,1 C 2,2 C 89 % 1008,0 hPa 0,0 l/m 0 min 0 min 0 W/m 31,4 km/h (5 Bft)
14.01.2015 06:56 4,1 C 2,2 C 88 % 1007,9 hPa 0,0 l/m 0 min 0 min 0 W/m 25,1 km/h (4 Bft)
14.01.2015 06:58 4,1 C 2,2 C 88 % 1007,9 hPa 0,0 l/m 0 min 0 min 0 W/m 27,2 km/h (4 Bft)
14.01.2015 07:00 4,0 C 2,2 C 88 % 1007,9 hPa 0,0 l/m 0 min 0 min 0 W/m 29,3 km/h (5 Bft)
14.01.2015 07:02 4,0 C 2,2 C 88 % 1008,0 hPa 0,0 l/m 0 min 0 min 0 W/m 29,3 km/h (5 Bft)
14.01.2015 07:04 3,9 C 2,2 C 88 % 1007,9 hPa 0,0 l/m 0 min 0 min 0 W/m 35,6 km/h (5 Bft)
14.01.2015 07:06 3,9 C 2,2 C 88 % 1008,0 hPa 0,0 l/m 0 min 0 min 0 W/m 29,3 km/h (5 Bft)
14.01.2015 07:08 3,9 C 2,2 C 89 % 1007,9 hPa 0,0 l/m 0 min 0 min 0 W/m 27,2 km/h (4 Bft)
14.01.2015 07:10 3,9 C 2,2 C 89 % 1007,8 hPa 0,0 l/m 0 min 0 min 0 W/m 33,5 km/h (5 Bft)
14.01.2015 07:12 3,9 C 2,2 C 89 % 1007,8 hPa 0,0 l/m 0 min 0 min 0 W/m 29,3 km/h (5 Bft)
14.01.2015 07:14 3,9 C 2,2 C 89 % 1007,8 hPa 0,0 l/m 0 min 0 min 0 W/m 23,0 km/h (4 Bft)
14.01.2015 07:16 3,9 C 2,2 C 89 % 1007,8 hPa 0,0 l/m 0 min 0 min 0 W/m 29,3 km/h (5 Bft)
14.01.2015 07:18 3,9 C 2,2 C 89 % 1007,7 hPa 0,0 l/m 0 min 0 min 0 W/m 27,2 km/h (4 Bft)
14.01.2015 07:20 3,9 C 2,2 C 89 % 1007,8 hPa 0,0 l/m 0 min 0 min 0 W/m 20,9 km/h (4 Bft)
14.01.2015 07:22 3,9 C 2,2 C 89 % 1007,7 hPa 0,0 l/m 0 min 0 min 0 W/m 31,4 km/h (5 Bft)
14.01.2015 07:24 3,9 C 2,2 C 89 % 1007,6 hPa 0,0 l/m 0 min 0 min 0 W/m 16,7 km/h (3 Bft)
14.01.2015 07:26 3,9 C 2,2 C 89 % 1007,7 hPa 0,0 l/m 0 min 0 min 0 W/m 20,9 km/h (4 Bft)
14.01.2015 07:28 3,9 C 2,2 C 89 % 1007,8 hPa 0,0 l/m 0 min 0 min 0 W/m 39,7 km/h (6 Bft)
14.01.2015 07:30 3,9 C 2,2 C 90 % 1007,7 hPa 0,0 l/m 0 min 0 min 0 W/m 37,7 km/h (5 Bft)
14.01.2015 07:32 3,9 C 2,2 C 90 % 1007,6 hPa 0,0 l/m 0 min 0 min 0 W/m 33,5 km/h (5 Bft)
14.01.2015 07:34 3,9 C 2,2 C 90 % 1007,7 hPa 0,0 l/m 0 min 0 min 0 W/m 33,5 km/h (5 Bft)
14.01.2015 07:36 3,9 C 2,2 C 90 % 1007,5 hPa 0,0 l/m 0 min 0 min 0 W/m 29,3 km/h (5 Bft)
14.01.2015 07:38 3,9 C 2,2 C 90 % 1007,7 hPa 0,0 l/m 0 min 0 min 0 W/m 31,4 km/h (5 Bft)
14.01.2015 07:40 3,9 C 2,2 C 90 % 1007,7 hPa 0,0 l/m 0 min 0 min 0 W/m 25,1 km/h (4 Bft)
14.01.2015 07:42 3,9 C 2,2 C 90 % 1007,8 hPa 0,0 l/m 0 min 0 min 0 W/m 27,2 km/h (4 Bft)
14.01.2015 07:44 3,9 C 2,2 C 90 % 1007,8 hPa 0,0 l/m 0 min 0 min 0 W/m 27,2 km/h (4 Bft)
14.01.2015 07:46 3,8 C 2,2 C 90 % 1007,8 hPa 0,0 l/m 0 min 0 min 0 W/m 29,3 km/h (5 Bft)
14.01.2015 07:48 3,9 C 2,2 C 90 % 1007,8 hPa 0,0 l/m 0 min 0 min 0 W/m 25,1 km/h (4 Bft)
14.01.2015 07:50 3,8 C 2,2 C 90 % 1007,8 hPa 0,0 l/m 0 min 0 min 0 W/m 33,5 km/h (5 Bft)
14.01.2015 07:52 3,9 C 2,2 C 90 % 1007,8 hPa 0,0 l/m 0 min 0 min 0 W/m 37,7 km/h (5 Bft)
14.01.2015 07:54 3,9 C 2,2 C 90 % 1007,8 hPa 0,0 l/m 0 min 0 min 0 W/m 31,4 km/h (5 Bft)
14.01.2015 07:56 3,9 C 2,2 C 90 % 1007,7 hPa 0,0 l/m 0 min 0 min 0 W/m 37,7 km/h (5 Bft)
14.01.2015 07:58 3,9 C 2,2 C 90 % 1007,8 hPa 0,0 l/m 0 min 0 min 0 W/m 35,6 km/h (5 Bft)
14.01.2015 08:00 3,9 C 2,8 C 90 % 1007,7 hPa 0,0 l/m 0 min 0 min 0 W/m 29,3 km/h (5 Bft)
14.01.2015 08:02 3,9 C 2,2 C 90 % 1007,7 hPa 0,0 l/m 0 min 0 min 0 W/m 41,8 km/h (6 Bft)
14.01.2015 08:06 3,9 C 2,2 C 90 % 1007,5 hPa 0,0 l/m 0 min 0 min 0 W/m 20,9 km/h (4 Bft)
14.01.2015 08:08 3,9 C 2,2 C 90 % 1007,6 hPa 0,0 l/m 0 min 0 min 0 W/m 39,7 km/h (6 Bft)
14.01.2015 08:10 3,9 C 2,2 C 90 % 1007,6 hPa 0,0 l/m 0 min 0 min 0 W/m 27,2 km/h (4 Bft)
14.01.2015 08:12 3,9 C 2,2 C 89 % 1007,6 hPa 0,0 l/m 0 min 0 min 0 W/m 31,4 km/h (5 Bft)
14.01.2015 08:14 3,9 C 2,2 C 89 % 1007,6 hPa 0,0 l/m 0 min 0 min 0 W/m 27,2 km/h (4 Bft)
14.01.2015 08:16 3,9 C 2,2 C 89 % 1007,5 hPa 0,0 l/m 0 min 0 min 0 W/m 25,1 km/h (4 Bft)
14.01.2015 08:18 3,9 C 2,2 C 89 % 1007,5 hPa 0,0 l/m 0 min 0 min 0 W/m 35,6 km/h (5 Bft)
14.01.2015 08:20 3,9 C 2,8 C 89 % 1007,6 hPa 0,0 l/m 0 min 0 min 0 W/m 37,7 km/h (5 Bft)
14.01.2015 08:22 3,9 C 2,2 C 89 % 1007,7 hPa 0,0 l/m 0 min 0 min 0 W/m 33,5 km/h (5 Bft)
14.01.2015 08:24 3,9 C 2,2 C 89 % 1007,6 hPa 0,0 l/m 0 min 0 min 0 W/m 25,1 km/h (4 Bft)
14.01.2015 08:26 4,0 C 2,2 C 88 % 1007,5 hPa 0,0 l/m 0 min 0 min 0 W/m 39,7 km/h (6 Bft)
14.01.2015 08:28 4,0 C 2,8 C 88 % 1007,6 hPa 0,0 l/m 0 min 0 min 0 W/m 31,4 km/h (5 Bft)
14.01.2015 08:30 4,0 C 2,8 C 88 % 1007,7 hPa 0,0 l/m 0 min 0 min 5 W/m 31,4 km/h (5 Bft)
14.01.2015 08:32 4,0 C 2,8 C 88 % 1007,6 hPa 0,0 l/m 0 min 0 min 5 W/m 27,2 km/h (4 Bft)
14.01.2015 08:34 4,0 C 2,8 C 88 % 1007,7 hPa 0,0 l/m 0 min 0 min 5 W/m 37,7 km/h (5 Bft)
14.01.2015 08:36 4,0 C 2,2 C 88 % 1007,6 hPa 0,0 l/m 0 min 0 min 5 W/m 20,9 km/h (4 Bft)
14.01.2015 08:38 4,0 C 2,2 C 87 % 1007,6 hPa 0,0 l/m 0 min 0 min 7 W/m 31,4 km/h (5 Bft)
14.01.2015 08:40 4,0 C 2,8 C 87 % 1007,6 hPa 0,0 l/m 0 min 0 min 7 W/m 31,4 km/h (5 Bft)
14.01.2015 08:42 4,0 C 2,8 C 87 % 1007,7 hPa 0,0 l/m 0 min 0 min 7 W/m 27,2 km/h (4 Bft)
14.01.2015 08:44 4,0 C 2,8 C 87 % 1007,7 hPa 0,0 l/m 0 min 0 min 9 W/m 35,6 km/h (5 Bft)
14.01.2015 08:46 4,0 C 2,8 C 87 % 1007,8 hPa 0,0 l/m 0 min 0 min 9 W/m 29,3 km/h (5 Bft)
14.01.2015 08:48 4,0 C 2,8 C 87 % 1007,8 hPa 0,0 l/m 2 min 0 min 11 W/m 29,3 km/h (5 Bft)
14.01.2015 08:50 4,0 C 2,8 C 87 % 1007,8 hPa 0,0 l/m 2 min 0 min 12 W/m 35,6 km/h (5 Bft)
14.01.2015 08:52 4,0 C 2,8 C 87 % 1007,9 hPa 0,0 l/m 0 min 0 min 13 W/m 23,0 km/h (4 Bft)
14.01.2015 08:54 4,1 C 2,8 C 87 % 1007,9 hPa 0,0 l/m 0 min 0 min 14 W/m 31,4 km/h (5 Bft)
14.01.2015 08:56 4,1 C 2,8 C 87 % 1007,9 hPa 0,0 l/m 0 min 0 min 17 W/m 29,3 km/h (5 Bft)
14.01.2015 08:58 4,1 C 2,8 C 87 % 1007,9 hPa 0,0 l/m 0 min 0 min 18 W/m 27,2 km/h (4 Bft)
14.01.2015 09:00 4,1 C 2,8 C 87 % 1007,9 hPa 0,0 l/m 0 min 0 min 19 W/m 16,7 km/h (3 Bft)
14.01.2015 09:02 4,1 C 2,8 C 87 % 1007,9 hPa 0,0 l/m 0 min 0 min 19 W/m 23,0 km/h (4 Bft)
14.01.2015 09:06 4,1 C 2,8 C 87 % 1007,9 hPa 0,0 l/m 0 min 0 min 19 W/m 31,4 km/h (5 Bft)
14.01.2015 09:08 4,1 C 2,8 C 87 % 1007,9 hPa 0,0 l/m 0 min 0 min 19 W/m 23,0 km/h (4 Bft)
14.01.2015 09:10 4,1 C 2,8 C 87 % 1007,9 hPa 0,0 l/m 0 min 0 min 21 W/m 31,4 km/h (5 Bft)
14.01.2015 09:12 4,1 C 2,8 C 87 % 1007,9 hPa 0,0 l/m 0 min 0 min 28 W/m 20,9 km/h (4 Bft)
14.01.2015 09:14 4,1 C 2,8 C 87 % 1007,9 hPa 0,0 l/m 0 min 0 min 34 W/m 33,5 km/h (5 Bft)
14.01.2015 09:16 4,2 C 2,8 C 87 % 1007,9 hPa 0,0 l/m 0 min 0 min 34 W/m 25,1 km/h (4 Bft)
14.01.2015 09:18 4,2 C 2,8 C 87 % 1008,0 hPa 0,0 l/m 0 min 0 min 30 W/m 29,3 km/h (5 Bft)
14.01.2015 09:20 4,2 C 3,3 C 87 % 1007,9 hPa 0,0 l/m 0 min 0 min 28 W/m 41,8 km/h (6 Bft)
14.01.2015 09:25 4,2 C 3,3 C 87 % 1007,9 hPa 0,0 l/m 0 min 0 min 30 W/m 29,3 km/h (5 Bft)
14.01.2015 09:30 4,3 C 3,3 C 86 % 1008,0 hPa 0,0 l/m 0 min 0 min 38 W/m 37,7 km/h (5 Bft)
14.01.2015 09:35 4,4 C 3,3 C 86 % 1008,0 hPa 0,0 l/m 0 min 0 min 49 W/m 33,5 km/h (5 Bft)
14.01.2015 09:40 4,5 C 3,3 C 86 % 1007,9 hPa 0,0 l/m 0 min 0 min 54 W/m 33,5 km/h (5 Bft)
14.01.2015 09:44 4,5 C 3,3 C 86 % 1007,9 hPa 0,0 l/m 0 min 0 min 63 W/m 25,1 km/h (4 Bft)
14.01.2015 09:45 4,5 C 3,3 C 86 % 1007,9 hPa 0,0 l/m 0 min 0 min 62 W/m 35,6 km/h (5 Bft)
14.01.2015 09:50 4,6 C 3,3 C 86 % 1008,0 hPa 0,0 l/m 2 min 0 min 72 W/m 31,4 km/h (5 Bft)
14.01.2015 09:52 4,6 C 3,3 C 86 % 1008,0 hPa 0,0 l/m 2 min 0 min 81 W/m 39,7 km/h (6 Bft)
14.01.2015 09:54 4,6 C 3,3 C 85 % 1008,0 hPa 0,0 l/m 2 min 0 min 92 W/m 23,0 km/h (4 Bft)
14.01.2015 09:56 4,6 C 3,3 C 85 % 1008,0 hPa 0,0 l/m 2 min 0 min 82 W/m 16,7 km/h (3 Bft)
14.01.2015 09:58 4,7 C 3,3 C 85 % 1008,0 hPa 0,0 l/m 2 min 0 min 80 W/m 23,0 km/h (4 Bft)
14.01.2015 10:00 4,7 C 3,3 C 85 % 1008,0 hPa 0,0 l/m 2 min 0 min 84 W/m 37,7 km/h (5 Bft)
14.01.2015 10:02 4,7 C 3,3 C 85 % 1008,0 hPa 0,0 l/m 0 min 0 min 75 W/m 35,6 km/h (5 Bft)
14.01.2015 10:06 4,7 C 3,3 C 85 % 1008,0 hPa 0,0 l/m 0 min 0 min 54 W/m 14,6 km/h (3 Bft)
14.01.2015 10:08 4,7 C 3,3 C 85 % 1008,0 hPa 0,0 l/m 0 min 0 min 56 W/m 25,1 km/h (4 Bft)
14.01.2015 10:10 4,7 C 3,9 C 85 % 1008,1 hPa 0,0 l/m 0 min 0 min 69 W/m 35,6 km/h (5 Bft)
14.01.2015 10:12 4,7 C 3,9 C 85 % 1008,0 hPa 0,0 l/m 2 min 0 min 94 W/m 31,4 km/h (5 Bft)
14.01.2015 10:14 4,8 C 3,9 C 85 % 1008,0 hPa 0,0 l/m 2 min 0 min 117 W/m 39,7 km/h (6 Bft)
14.01.2015 10:16 4,8 C 3,9 C 85 % 1007,9 hPa 0,0 l/m 2 min 0 min 130 W/m 35,6 km/h (5 Bft)
14.01.2015 10:18 4,8 C 3,9 C 85 % 1008,0 hPa 0,0 l/m 2 min 0 min 117 W/m 33,5 km/h (5 Bft)
14.01.2015 10:20 4,9 C 3,9 C 85 % 1007,9 hPa 0,0 l/m 0 min 0 min 92 W/m 33,5 km/h (5 Bft)
14.01.2015 10:22 4,9 C 3,9 C 85 % 1007,9 hPa 0,0 l/m 0 min 0 min 78 W/m 23,0 km/h (4 Bft)
14.01.2015 10:24 4,9 C 3,9 C 85 % 1007,9 hPa 0,0 l/m 0 min 0 min 75 W/m 25,1 km/h (4 Bft)
14.01.2015 10:26 4,9 C 3,9 C 84 % 1007,9 hPa 0,0 l/m 0 min 0 min 82 W/m 35,6 km/h (5 Bft)
14.01.2015 10:28 4,9 C 3,9 C 84 % 1007,7 hPa 0,0 l/m 0 min 0 min 92 W/m 27,2 km/h (4 Bft)
14.01.2015 10:30 5,0 C 3,9 C 84 % 1007,7 hPa 0,0 l/m 0 min 0 min 84 W/m 46,0 km/h (6 Bft)
14.01.2015 10:32 5,0 C 3,9 C 84 % 1007,6 hPa 0,0 l/m 2 min 0 min 111 W/m 23,0 km/h (4 Bft)
14.01.2015 10:34 5,0 C 3,9 C 84 % 1007,8 hPa 0,0 l/m 2 min 0 min 127 W/m 29,3 km/h (5 Bft)
14.01.2015 10:36 5,1 C 3,9 C 84 % 1007,8 hPa 0,0 l/m 2 min 0 min 122 W/m 39,7 km/h (6 Bft)
14.01.2015 10:38 5,1 C 3,9 C 84 % 1007,9 hPa 0,0 l/m 2 min 0 min 114 W/m 39,7 km/h (6 Bft)
14.01.2015 10:40 5,1 C 3,9 C 84 % 1007,7 hPa 0,0 l/m 2 min 0 min 162 W/m 35,6 km/h (5 Bft)
14.01.2015 10:42 5,2 C 3,9 C 83 % 1007,7 hPa 0,0 l/m 2 min 0 min 135 W/m 35,6 km/h (5 Bft)
14.01.2015 10:44 5,2 C 4,4 C 83 % 1007,8 hPa 0,0 l/m 2 min 0 min 122 W/m 27,2 km/h (4 Bft)
14.01.2015 10:46 5,2 C 4,4 C 83 % 1007,8 hPa 0,0 l/m 0 min 0 min 112 W/m 33,5 km/h (5 Bft)
14.01.2015 10:48 5,2 C 4,4 C 83 % 1007,8 hPa 0,0 l/m 0 min 0 min 46 W/m 31,4 km/h (5 Bft)
14.01.2015 10:50 5,3 C 3,9 C 83 % 1007,9 hPa 0,0 l/m 0 min 0 min 20 W/m 27,2 km/h (4 Bft)
14.01.2015 10:52 5,3 C 3,9 C 83 % 1007,9 hPa 0,0 l/m 0 min 0 min 15 W/m 35,6 km/h (5 Bft)
14.01.2015 10:54 5,3 C 3,3 C 83 % 1007,7 hPa 0,0 l/m 0 min 2 min 15 W/m 41,8 km/h (6 Bft)
14.01.2015 10:56 5,3 C 2,8 C 84 % 1007,8 hPa 0,2 l/m 0 min 2 min 36 W/m 46,0 km/h (6 Bft)
14.01.2015 10:58 5,2 C 2,8 C 84 % 1007,9 hPa 0,0 l/m 0 min 2 min 55 W/m 48,1 km/h (6 Bft)
14.01.2015 11:00 5,2 C 2,8 C 85 % 1007,8 hPa 0,0 l/m 0 min 2 min 62 W/m 29,3 km/h (5 Bft)
14.01.2015 11:02 5,1 C 2,8 C 85 % 1007,8 hPa 0,0 l/m 0 min 2 min 110 W/m 41,8 km/h (6 Bft)
14.01.2015 11:04 5,1 C 3,3 C 86 % 1007,8 hPa 0,0 l/m 0 min 2 min 107 W/m 39,7 km/h (6 Bft)
14.01.2015 11:06 5,0 C 3,3 C 86 % 1007,7 hPa 0,0 l/m 0 min 2 min 101 W/m 31,4 km/h (5 Bft)
14.01.2015 11:08 4,9 C 2,8 C 87 % 1007,8 hPa 0,0 l/m 0 min 2 min 84 W/m 35,6 km/h (5 Bft)
14.01.2015 11:10 4,9 C 2,8 C 87 % 1007,7 hPa 0,0 l/m 0 min 2 min 66 W/m 41,8 km/h (6 Bft)
14.01.2015 11:12 4,8 C 2,8 C 87 % 1007,8 hPa 0,0 l/m 0 min 0 min 50 W/m 29,3 km/h (5 Bft)
14.01.2015 11:14 4,8 C 2,8 C 87 % 1007,7 hPa 0,0 l/m 0 min 0 min 40 W/m 33,5 km/h (5 Bft)
14.01.2015 11:16 4,7 C 2,8 C 88 % 1007,6 hPa 0,0 l/m 0 min 0 min 32 W/m 46,0 km/h (6 Bft)
14.01.2015 11:18 4,7 C 2,8 C 88 % 1007,7 hPa 0,0 l/m 0 min 0 min 29 W/m 35,6 km/h (5 Bft)
14.01.2015 11:20 4,7 C 2,8 C 88 % 1007,7 hPa 0,0 l/m 0 min 0 min 32 W/m 35,6 km/h (5 Bft)
14.01.2015 11:22 4,6 C 2,8 C 88 % 1007,7 hPa 0,0 l/m 0 min 0 min 34 W/m 27,2 km/h (4 Bft)
14.01.2015 11:24 4,6 C 2,8 C 89 % 1007,7 hPa 0,0 l/m 0 min 0 min 33 W/m 43,9 km/h (6 Bft)
14.01.2015 11:26 4,6 C 2,8 C 89 % 1007,6 hPa 0,2 l/m 0 min 0 min 54 W/m 29,3 km/h (5 Bft)
14.01.2015 11:28 4,6 C 3,3 C 89 % 1007,5 hPa 0,0 l/m 0 min 0 min 71 W/m 20,9 km/h (4 Bft)
14.01.2015 11:30 4,7 C 3,3 C 89 % 1007,7 hPa 0,0 l/m 0 min 0 min 78 W/m 31,4 km/h (5 Bft)
14.01.2015 11:32 4,7 C 3,3 C 89 % 1007,6 hPa 0,0 l/m 0 min 0 min 84 W/m 37,7 km/h (5 Bft)
14.01.2015 11:34 4,7 C 3,3 C 89 % 1007,3 hPa 0,0 l/m 0 min 0 min 91 W/m 37,7 km/h (5 Bft)
14.01.2015 11:36 4,7 C 3,3 C 90 % 1007,3 hPa 0,0 l/m 0 min 0 min 91 W/m 29,3 km/h (5 Bft)
14.01.2015 11:38 4,7 C 3,3 C 90 % 1007,3 hPa 0,0 l/m 0 min 0 min 87 W/m 31,4 km/h (5 Bft)
14.01.2015 11:40 4,7 C 3,3 C 90 % 1007,3 hPa 0,0 l/m 0 min 0 min 80 W/m 37,7 km/h (5 Bft)
14.01.2015 11:42 4,8 C 3,3 C 90 % 1007,2 hPa 0,0 l/m 0 min 0 min 69 W/m 54,4 km/h (7 Bft)
14.01.2015 11:44 4,8 C 3,3 C 90 % 1007,3 hPa 0,0 l/m 0 min 0 min 66 W/m 41,8 km/h (6 Bft)
14.01.2015 11:46 4,8 C 3,3 C 90 % 1007,3 hPa 0,0 l/m 0 min 0 min 60 W/m 33,5 km/h (5 Bft)
14.01.2015 11:48 4,9 C 3,3 C 90 % 1007,1 hPa 0,0 l/m 0 min 0 min 62 W/m 43,9 km/h (6 Bft)
14.01.2015 11:50 4,9 C 3,3 C 90 % 1007,2 hPa 0,0 l/m 0 min 0 min 57 W/m 43,9 km/h (6 Bft)
14.01.2015 11:52 5,0 C 3,3 C 90 % 1007,0 hPa 0,0 l/m 0 min 0 min 56 W/m 50,2 km/h (7 Bft)
14.01.2015 11:54 5,0 C 3,3 C 90 % 1007,0 hPa 0,0 l/m 0 min 0 min 47 W/m 31,4 km/h (5 Bft)
14.01.2015 11:56 5,1 C 3,3 C 90 % 1007,2 hPa 0,0 l/m 0 min 0 min 43 W/m 39,7 km/h (6 Bft)
14.01.2015 11:58 5,1 C 3,3 C 90 % 1007,0 hPa 0,0 l/m 0 min 0 min 37 W/m 48,1 km/h (6 Bft)
14.01.2015 12:00 5,1 C 3,3 C 90 % 1007,0 hPa 0,0 l/m 0 min 0 min 41 W/m 52,3 km/h (7 Bft)
14.01.2015 12:02 5,1 C 3,3 C 90 % 1007,0 hPa 0,0 l/m 0 min 0 min 45 W/m 52,3 km/h (7 Bft)
14.01.2015 12:06 5,1 C 3,3 C 89 % 1006,9 hPa 0,0 l/m 0 min 0 min 37 W/m 43,9 km/h (6 Bft)
14.01.2015 12:08 5,1 C 3,3 C 89 % 1006,8 hPa 0,0 l/m 0 min 0 min 34 W/m 43,9 km/h (6 Bft)
14.01.2015 12:10 5,1 C 3,3 C 89 % 1006,9 hPa 0,0 l/m 0 min 0 min 33 W/m 41,8 km/h (6 Bft)
14.01.2015 12:12 5,1 C 3,3 C 89 % 1006,8 hPa 0,0 l/m 0 min 0 min 33 W/m 50,2 km/h (7 Bft)
14.01.2015 12:14 5,1 C 3,3 C 89 % 1006,9 hPa 0,0 l/m 0 min 0 min 32 W/m 64,9 km/h (8 Bft)
14.01.2015 12:16 5,0 C 2,8 C 89 % 1007,1 hPa 0,0 l/m 0 min 0 min 20 W/m 62,8 km/h (8 Bft)
14.01.2015 12:18 4,9 C 2,8 C 88 % 1007,1 hPa 0,0 l/m 0 min 2 min 15 W/m 48,1 km/h (6 Bft)
14.01.2015 12:20 4,8 C 2,2 C 88 % 1007,1 hPa 0,0 l/m 0 min 2 min 15 W/m 43,9 km/h (6 Bft)
14.01.2015 12:22 4,7 C 2,2 C 88 % 1007,2 hPa 0,0 l/m 0 min 2 min 15 W/m 39,7 km/h (6 Bft)
14.01.2015 12:24 4,6 C 2,2 C 87 % 1007,2 hPa 0,2 l/m 0 min 2 min 14 W/m 52,3 km/h (7 Bft)
14.01.2015 12:26 4,6 C 2,2 C 87 % 1007,3 hPa 0,0 l/m 0 min 2 min 15 W/m 52,3 km/h (7 Bft)
14.01.2015 12:28 4,4 C 2,2 C 87 % 1007,4 hPa 0,0 l/m 0 min 2 min 18 W/m 46,0 km/h (6 Bft)
14.01.2015 12:30 4,4 C 2,2 C 87 % 1007,4 hPa 0,0 l/m 0 min 2 min 18 W/m 46,0 km/h (6 Bft)
14.01.2015 12:32 4,3 C 2,2 C 87 % 1007,3 hPa 0,0 l/m 0 min 2 min 17 W/m 46,0 km/h (6 Bft)
14.01.2015 12:34 4,2 C 2,2 C 88 % 1007,4 hPa 0,2 l/m 0 min 2 min 22 W/m 33,5 km/h (5 Bft)
14.01.2015 12:36 4,2 C 2,2 C 88 % 1007,5 hPa 0,0 l/m 0 min 2 min 26 W/m 33,5 km/h (5 Bft)
14.01.2015 12:38 4,1 C 2,2 C 88 % 1007,3 hPa 0,0 l/m 0 min 2 min 25 W/m 52,3 km/h (7 Bft)
14.01.2015 12:40 4,0 C 2,2 C 88 % 1007,4 hPa 0,0 l/m 0 min 2 min 25 W/m 56,5 km/h (7 Bft)
14.01.2015 12:42 3,9 C 2,2 C 88 % 1007,5 hPa 0,2 l/m 0 min 2 min 23 W/m 41,8 km/h (6 Bft)
14.01.2015 12:44 3,8 C 1,7 C 89 % 1007,6 hPa 0,0 l/m 0 min 2 min 23 W/m 43,9 km/h (6 Bft)
14.01.2015 12:46 3,8 C 1,7 C 89 % 1007,5 hPa 0,2 l/m 0 min 2 min 25 W/m 50,2 km/h (7 Bft)
14.01.2015 12:48 3,7 C 1,7 C 89 % 1007,5 hPa 0,0 l/m 0 min 2 min 25 W/m 39,7 km/h (6 Bft)
14.01.2015 12:50 3,6 C 1,7 C 90 % 1007,5 hPa 0,0 l/m 0 min 2 min 23 W/m 37,7 km/h (5 Bft)
14.01.2015 12:52 3,6 C 1,7 C 90 % 1007,5 hPa 0,0 l/m 0 min 2 min 15 W/m 33,5 km/h (5 Bft)
14.01.2015 12:54 3,5 C 1,7 C 90 % 1007,2 hPa 0,2 l/m 0 min 2 min 17 W/m 33,5 km/h (5 Bft)
14.01.2015 12:56 3,4 C 1,7 C 90 % 1006,8 hPa 0,0 l/m 0 min 2 min 21 W/m 25,1 km/h (4 Bft)
14.01.2015 12:58 3,4 C 1,7 C 91 % 1006,9 hPa 0,0 l/m 0 min 2 min 40 W/m 33,5 km/h (5 Bft)
14.01.2015 13:00 3,4 C 2,2 C 91 % 1007,1 hPa 0,0 l/m 0 min 0 min 67 W/m 27,2 km/h (4 Bft)
14.01.2015 13:02 3,4 C 2,2 C 91 % 1007,1 hPa 0,0 l/m 0 min 0 min 85 W/m 27,2 km/h (4 Bft)
14.01.2015 13:04 3,4 C 2,2 C 91 % 1007,0 hPa 0,0 l/m 0 min 0 min 88 W/m 27,2 km/h (4 Bft)
14.01.2015 13:06 3,4 C 2,2 C 92 % 1007,1 hPa 0,0 l/m 0 min 0 min 84 W/m 29,3 km/h (5 Bft)
14.01.2015 13:08 3,3 C 2,2 C 92 % 1007,0 hPa 0,0 l/m 0 min 0 min 83 W/m 25,1 km/h (4 Bft)
14.01.2015 13:10 3,3 C 2,2 C 92 % 1007,0 hPa 0,0 l/m 0 min 0 min 87 W/m 33,5 km/h (5 Bft)
14.01.2015 13:12 3,3 C 2,2 C 92 % 1006,9 hPa 0,0 l/m 0 min 0 min 91 W/m 33,5 km/h (5 Bft)
14.01.2015 13:14 3,3 C 2,2 C 92 % 1006,9 hPa 0,0 l/m 0 min 0 min 92 W/m 25,1 km/h (4 Bft)
14.01.2015 13:16 3,3 C 2,2 C 92 % 1006,9 hPa 0,0 l/m 0 min 0 min 85 W/m 23,0 km/h (4 Bft)
14.01.2015 13:18 3,3 C 2,2 C 92 % 1006,9 hPa 0,0 l/m 0 min 0 min 75 W/m 23,0 km/h (4 Bft)
14.01.2015 13:20 3,3 C 2,2 C 92 % 1006,8 hPa 0,0 l/m 0 min 0 min 68 W/m 20,9 km/h (4 Bft)
14.01.2015 13:22 3,3 C 2,2 C 92 % 1006,7 hPa 0,0 l/m 0 min 0 min 61 W/m 16,7 km/h (3 Bft)
14.01.2015 13:24 3,3 C 2,2 C 92 % 1006,9 hPa 0,0 l/m 0 min 0 min 55 W/m 23,0 km/h (4 Bft)
14.01.2015 13:26 3,2 C 2,2 C 93 % 1007,0 hPa 0,0 l/m 0 min 0 min 52 W/m 25,1 km/h (4 Bft)
14.01.2015 13:28 3,2 C 2,2 C 93 % 1007,2 hPa 0,0 l/m 0 min 0 min 49 W/m 29,3 km/h (5 Bft)
14.01.2015 13:30 3,2 C 2,2 C 93 % 1007,2 hPa 0,0 l/m 0 min 0 min 47 W/m 25,1 km/h (4 Bft)
14.01.2015 13:32 3,2 C 2,2 C 93 % 1007,2 hPa 0,0 l/m 0 min 0 min 48 W/m 27,2 km/h (4 Bft)
14.01.2015 13:34 3,2 C 2,2 C 93 % 1007,2 hPa 0,0 l/m 0 min 0 min 53 W/m 23,0 km/h (4 Bft)
14.01.2015 13:36 3,2 C 2,2 C 93 % 1007,2 hPa 0,0 l/m 0 min 0 min 54 W/m 18,8 km/h (3 Bft)
14.01.2015 13:38 3,2 C 2,2 C 93 % 1007,1 hPa 0,0 l/m 0 min 0 min 55 W/m 18,8 km/h (3 Bft)
14.01.2015 13:40 3,2 C 2,2 C 93 % 1007,2 hPa 0,0 l/m 0 min 0 min 57 W/m 16,7 km/h (3 Bft)
14.01.2015 13:42 3,2 C 2,2 C 93 % 1007,1 hPa 0,0 l/m 0 min 0 min 62 W/m 16,7 km/h (3 Bft)
14.01.2015 13:44 3,2 C 2,2 C 93 % 1007,2 hPa 0,0 l/m 0 min 0 min 66 W/m 25,1 km/h (4 Bft)
14.01.2015 13:46 3,2 C 2,2 C 93 % 1007,2 hPa 0,0 l/m 0 min 0 min 76 W/m 29,3 km/h (5 Bft)
14.01.2015 13:48 3,2 C 2,2 C 93 % 1007,2 hPa 0,0 l/m 0 min 0 min 93 W/m 16,7 km/h (3 Bft)
14.01.2015 13:50 3,2 C 2,8 C 93 % 1007,2 hPa 0,0 l/m 0 min 0 min 115 W/m 18,8 km/h (3 Bft)
14.01.2015 13:52 3,2 C 2,8 C 94 % 1007,3 hPa 0,0 l/m 0 min 0 min 130 W/m 23,0 km/h (4 Bft)
14.01.2015 13:54 3,3 C 2,8 C 94 % 1007,3 hPa 0,0 l/m 2 min 0 min 140 W/m 25,1 km/h (4 Bft)
14.01.2015 13:56 3,3 C 2,8 C 94 % 1007,3 hPa 0,0 l/m 2 min 0 min 167 W/m 27,2 km/h (4 Bft)
14.01.2015 13:58 3,4 C 2,8 C 94 % 1007,3 hPa 0,0 l/m 2 min 0 min 188 W/m 23,0 km/h (4 Bft)
14.01.2015 14:00 3,4 C 2,8 C 94 % 1007,3 hPa 0,0 l/m 2 min 0 min 162 W/m 25,1 km/h (4 Bft)
14.01.2015 14:02 3,5 C 2,8 C 94 % 1007,3 hPa 0,0 l/m 2 min 0 min 155 W/m 16,7 km/h (3 Bft)
14.01.2015 14:04 3,6 C 2,8 C 94 % 1007,4 hPa 0,0 l/m 2 min 0 min 150 W/m 27,2 km/h (4 Bft)
14.01.2015 14:06 3,6 C 2,8 C 94 % 1007,4 hPa 0,0 l/m 2 min 0 min 134 W/m 18,8 km/h (3 Bft)
14.01.2015 14:08 3,7 C 3,3 C 94 % 1007,5 hPa 0,0 l/m 2 min 0 min 134 W/m 16,7 km/h (3 Bft)
14.01.2015 14:10 3,7 C 3,3 C 94 % 1007,4 hPa 0,0 l/m 0 min 0 min 128 W/m 25,1 km/h (4 Bft)
14.01.2015 14:12 3,7 C 3,3 C 94 % 1007,5 hPa 0,0 l/m 0 min 0 min 119 W/m 25,1 km/h (4 Bft)
14.01.2015 14:14 3,8 C 2,8 C 94 % 1007,6 hPa 0,0 l/m 0 min 0 min 103 W/m 27,2 km/h (4 Bft)
14.01.2015 14:16 3,8 C 2,8 C 94 % 1007,7 hPa 0,0 l/m 0 min 0 min 89 W/m 29,3 km/h (5 Bft)
14.01.2015 14:18 3,8 C 2,8 C 94 % 1007,7 hPa 0,0 l/m 0 min 0 min 77 W/m 29,3 km/h (5 Bft)
14.01.2015 14:20 3,9 C 2,8 C 94 % 1007,8 hPa 0,0 l/m 0 min 0 min 74 W/m 27,2 km/h (4 Bft)
14.01.2015 14:22 3,9 C 2,8 C 94 % 1007,8 hPa 0,0 l/m 0 min 0 min 77 W/m 27,2 km/h (4 Bft)
14.01.2015 14:24 3,9 C 2,8 C 94 % 1007,9 hPa 0,0 l/m 0 min 0 min 81 W/m 31,4 km/h (5 Bft)
14.01.2015 14:26 3,9 C 2,8 C 94 % 1007,9 hPa 0,0 l/m 0 min 0 min 97 W/m 25,1 km/h (4 Bft)
14.01.2015 14:28 4,0 C 3,3 C 94 % 1007,9 hPa 0,0 l/m 2 min 0 min 134 W/m 31,4 km/h (5 Bft)
14.01.2015 14:30 4,0 C 3,3 C 94 % 1007,9 hPa 0,0 l/m 2 min 0 min 150 W/m 33,5 km/h (5 Bft)
14.01.2015 14:32 4,0 C 3,3 C 94 % 1007,9 hPa 0,0 l/m 2 min 0 min 150 W/m 25,1 km/h (4 Bft)
14.01.2015 14:34 4,1 C 3,3 C 94 % 1008,0 hPa 0,0 l/m 2 min 0 min 126 W/m 33,5 km/h (5 Bft)
14.01.2015 14:36 4,1 C 3,3 C 94 % 1008,0 hPa 0,0 l/m 0 min 0 min 106 W/m 31,4 km/h (5 Bft)
14.01.2015 14:38 4,1 C 2,8 C 93 % 1008,0 hPa 0,0 l/m 0 min 0 min 105 W/m 31,4 km/h (5 Bft)
14.01.2015 14:40 4,1 C 2,8 C 93 % 1008,0 hPa 0,0 l/m 0 min 0 min 105 W/m 33,5 km/h (5 Bft)
14.01.2015 14:42 4,1 C 2,8 C 93 % 1008,1 hPa 0,0 l/m 0 min 0 min 100 W/m 39,7 km/h (6 Bft)
14.01.2015 14:44 4,1 C 2,8 C 93 % 1008,1 hPa 0,0 l/m 0 min 0 min 93 W/m 37,7 km/h (5 Bft)
14.01.2015 14:46 4,1 C 2,8 C 93 % 1008,1 hPa 0,0 l/m 0 min 0 min 93 W/m 31,4 km/h (5 Bft)
14.01.2015 14:48 4,1 C 2,8 C 93 % 1008,1 hPa 0,0 l/m 0 min 0 min 98 W/m 37,7 km/h (5 Bft)
14.01.2015 14:50 4,1 C 2,8 C 92 % 1008,1 hPa 0,0 l/m 0 min 0 min 107 W/m 37,7 km/h (5 Bft)
14.01.2015 14:52 4,1 C 2,8 C 92 % 1008,2 hPa 0,0 l/m 0 min 0 min 104 W/m 27,2 km/h (4 Bft)
14.01.2015 14:54 4,1 C 2,8 C 92 % 1008,3 hPa 0,0 l/m 0 min 0 min 101 W/m 33,5 km/h (5 Bft)
14.01.2015 14:56 4,1 C 2,8 C 92 % 1008,4 hPa 0,0 l/m 0 min 0 min 95 W/m 43,9 km/h (6 Bft)
14.01.2015 14:58 4,1 C 2,8 C 92 % 1008,5 hPa 0,0 l/m 0 min 0 min 90 W/m 33,5 km/h (5 Bft)
14.01.2015 15:00 4,1 C 2,8 C 92 % 1008,6 hPa 0,0 l/m 0 min 0 min 85 W/m 25,1 km/h (4 Bft)
14.01.2015 15:02 4,2 C 2,8 C 91 % 1008,7 hPa 0,0 l/m 0 min 0 min 77 W/m 35,6 km/h (5 Bft)
14.01.2015 15:04 4,1 C 2,8 C 91 % 1008,7 hPa 0,0 l/m 0 min 0 min 66 W/m 31,4 km/h (5 Bft)
14.01.2015 15:06 4,2 C 2,8 C 91 % 1008,7 hPa 0,0 l/m 0 min 0 min 63 W/m 29,3 km/h (5 Bft)
14.01.2015 15:08 4,2 C 2,8 C 91 % 1008,8 hPa 0,0 l/m 0 min 0 min 69 W/m 31,4 km/h (5 Bft)
14.01.2015 15:10 4,2 C 3,3 C 91 % 1008,8 hPa 0,0 l/m 2 min 0 min 116 W/m 39,7 km/h (6 Bft)
14.01.2015 15:12 4,2 C 3,3 C 91 % 1008,9 hPa 0,0 l/m 2 min 0 min 157 W/m 33,5 km/h (5 Bft)
14.01.2015 15:14 4,2 C 3,3 C 91 % 1009,0 hPa 0,0 l/m 2 min 0 min 146 W/m 39,7 km/h (6 Bft)
14.01.2015 15:16 4,3 C 3,3 C 91 % 1009,0 hPa 0,0 l/m 2 min 0 min 127 W/m 29,3 km/h (5 Bft)
14.01.2015 15:18 4,3 C 3,3 C 91 % 1009,1 hPa 0,0 l/m 2 min 0 min 116 W/m 39,7 km/h (6 Bft)
14.01.2015 15:20 4,3 C 3,3 C 91 % 1009,1 hPa 0,0 l/m 2 min 0 min 100 W/m 41,8 km/h (6 Bft)
14.01.2015 15:22 4,3 C 3,3 C 91 % 1009,1 hPa 0,0 l/m 2 min 0 min 91 W/m 31,4 km/h (5 Bft)
14.01.2015 15:24 4,4 C 3,3 C 90 % 1009,1 hPa 0,0 l/m 0 min 0 min 72 W/m 31,4 km/h (5 Bft)
14.01.2015 15:26 4,4 C 2,8 C 90 % 1009,2 hPa 0,0 l/m 0 min 0 min 57 W/m 37,7 km/h (5 Bft)
14.01.2015 15:28 4,4 C 2,8 C 90 % 1009,3 hPa 0,0 l/m 0 min 0 min 50 W/m 27,2 km/h (4 Bft)
14.01.2015 15:30 4,4 C 2,8 C 90 % 1009,4 hPa 0,0 l/m 0 min 0 min 55 W/m 33,5 km/h (5 Bft)
14.01.2015 15:32 4,4 C 2,8 C 90 % 1009,4 hPa 0,0 l/m 0 min 0 min 48 W/m 35,6 km/h (5 Bft)
14.01.2015 15:34 4,4 C 2,8 C 90 % 1009,5 hPa 0,0 l/m 0 min 0 min 44 W/m 31,4 km/h (5 Bft)
14.01.2015 15:36 4,4 C 2,8 C 90 % 1009,6 hPa 0,0 l/m 0 min 0 min 38 W/m 33,5 km/h (5 Bft)
14.01.2015 15:38 4,4 C 2,8 C 90 % 1009,6 hPa 0,0 l/m 0 min 0 min 34 W/m 33,5 km/h (5 Bft)
14.01.2015 15:40 4,4 C 2,8 C 90 % 1009,7 hPa 0,0 l/m 0 min 0 min 46 W/m 27,2 km/h (4 Bft)
14.01.2015 15:42 4,4 C 2,8 C 90 % 1009,8 hPa 0,0 l/m 0 min 0 min 64 W/m 29,3 km/h (5 Bft)
14.01.2015 15:44 4,4 C 3,3 C 90 % 1009,8 hPa 0,0 l/m 2 min 0 min 79 W/m 41,8 km/h (6 Bft)
14.01.2015 15:46 4,4 C 3,3 C 89 % 1009,9 hPa 0,0 l/m 2 min 0 min 85 W/m 25,1 km/h (4 Bft)
14.01.2015 15:48 4,4 C 3,3 C 89 % 1010,0 hPa 0,0 l/m 2 min 0 min 79 W/m 27,2 km/h (4 Bft)
14.01.2015 15:50 4,5 C 3,3 C 89 % 1010,0 hPa 0,0 l/m 2 min 0 min 71 W/m 29,3 km/h (5 Bft)
14.01.2015 15:52 4,5 C 3,3 C 89 % 1010,1 hPa 0,0 l/m 2 min 0 min 71 W/m 29,3 km/h (5 Bft)
14.01.2015 15:54 4,5 C 3,3 C 89 % 1010,1 hPa 0,0 l/m 0 min 0 min 40 W/m 37,7 km/h (5 Bft)
14.01.2015 15:56 4,5 C 2,8 C 89 % 1010,1 hPa 0,0 l/m 0 min 0 min 26 W/m 20,9 km/h (4 Bft)
14.01.2015 15:58 4,5 C 2,8 C 89 % 1010,2 hPa 0,0 l/m 0 min 0 min 23 W/m 25,1 km/h (4 Bft)
14.01.2015 16:00 4,6 C 2,8 C 89 % 1010,2 hPa 0,0 l/m 0 min 0 min 20 W/m 29,3 km/h (5 Bft)
14.01.2015 16:02 4,6 C 2,8 C 89 % 1010,2 hPa 0,0 l/m 0 min 0 min 17 W/m 23,0 km/h (4 Bft)
14.01.2015 16:04 4,5 C 2,8 C 89 % 1010,3 hPa 0,0 l/m 0 min 0 min 14 W/m 20,9 km/h (4 Bft)
14.01.2015 16:06 4,5 C 2,8 C 89 % 1010,3 hPa 0,0 l/m 0 min 0 min 15 W/m 20,9 km/h (4 Bft)
14.01.2015 16:08 4,5 C 2,8 C 89 % 1010,4 hPa 0,0 l/m 0 min 0 min 20 W/m 20,9 km/h (4 Bft)
14.01.2015 16:10 4,5 C 2,8 C 89 % 1010,4 hPa 0,0 l/m 0 min 0 min 23 W/m 18,8 km/h (3 Bft)
14.01.2015 16:12 4,5 C 2,8 C 88 % 1010,5 hPa 0,0 l/m 0 min 0 min 19 W/m 27,2 km/h (4 Bft)
14.01.2015 16:14 4,5 C 2,8 C 88 % 1010,6 hPa 0,0 l/m 0 min 0 min 18 W/m 27,2 km/h (4 Bft)
14.01.2015 16:16 4,5 C 2,8 C 88 % 1010,6 hPa 0,0 l/m 0 min 0 min 16 W/m 29,3 km/h (5 Bft)
14.01.2015 16:18 4,4 C 2,8 C 88 % 1010,6 hPa 0,0 l/m 0 min 0 min 16 W/m 33,5 km/h (5 Bft)
14.01.2015 16:20 4,4 C 2,8 C 88 % 1010,8 hPa 0,0 l/m 0 min 0 min 15 W/m 23,0 km/h (4 Bft)
14.01.2015 16:22 4,4 C 2,8 C 88 % 1010,8 hPa 0,0 l/m 0 min 0 min 13 W/m 37,7 km/h (5 Bft)
14.01.2015 16:24 4,4 C 2,8 C 88 % 1010,8 hPa 0,0 l/m 0 min 0 min 13 W/m 33,5 km/h (5 Bft)
14.01.2015 16:26 4,4 C 2,8 C 88 % 1010,9 hPa 0,0 l/m 0 min 0 min 12 W/m 29,3 km/h (5 Bft)
14.01.2015 16:28 4,4 C 2,8 C 88 % 1011,0 hPa 0,0 l/m 0 min 0 min 12 W/m 27,2 km/h (4 Bft)
14.01.2015 16:30 4,4 C 2,8 C 88 % 1011,0 hPa 0,0 l/m 0 min 0 min 11 W/m 25,1 km/h (4 Bft)
14.01.2015 16:32 4,4 C 2,8 C 88 % 1011,1 hPa 0,0 l/m 0 min 0 min 10 W/m 23,0 km/h (4 Bft)
14.01.2015 16:34 4,4 C 2,8 C 88 % 1011,1 hPa 0,0 l/m 0 min 0 min 9 W/m 23,0 km/h (4 Bft)
14.01.2015 16:36 4,4 C 2,8 C 88 % 1011,2 hPa 0,0 l/m 0 min 0 min 11 W/m 23,0 km/h (4 Bft)
14.01.2015 16:38 4,4 C 2,8 C 88 % 1011,3 hPa 0,0 l/m 2 min 0 min 12 W/m 25,1 km/h (4 Bft)
14.01.2015 16:40 4,4 C 2,8 C 88 % 1011,3 hPa 0,0 l/m 2 min 0 min 11 W/m 25,1 km/h (4 Bft)
14.01.2015 16:42 4,4 C 2,8 C 88 % 1011,3 hPa 0,0 l/m 0 min 0 min 10 W/m 23,0 km/h (4 Bft)
14.01.2015 16:44 4,4 C 2,8 C 88 % 1011,2 hPa 0,0 l/m 0 min 0 min 9 W/m 18,8 km/h (3 Bft)
14.01.2015 16:46 4,4 C 2,8 C 88 % 1011,2 hPa 0,0 l/m 0 min 0 min 7 W/m 29,3 km/h (5 Bft)
14.01.2015 16:48 4,4 C 2,8 C 88 % 1011,2 hPa 0,0 l/m 0 min 0 min 5 W/m 23,0 km/h (4 Bft)
14.01.2015 16:50 4,4 C 2,8 C 88 % 1011,3 hPa 0,0 l/m 0 min 0 min 3 W/m 25,1 km/h (4 Bft)
14.01.2015 16:52 4,4 C 2,8 C 88 % 1011,4 hPa 0,0 l/m 0 min 0 min 0 W/m 25,1 km/h (4 Bft)
14.01.2015 16:54 4,4 C 2,8 C 88 % 1011,4 hPa 0,0 l/m 0 min 0 min 0 W/m 27,2 km/h (4 Bft)
14.01.2015 16:56 4,3 C 2,8 C 88 % 1011,3 hPa 0,0 l/m 0 min 0 min 0 W/m 14,6 km/h (3 Bft)
14.01.2015 16:58 4,4 C 2,8 C 88 % 1011,4 hPa 0,0 l/m 0 min 0 min 0 W/m 25,1 km/h (4 Bft)
14.01.2015 17:00 4,3 C 2,8 C 88 % 1011,5 hPa 0,0 l/m 0 min 0 min 0 W/m 27,2 km/h (4 Bft)
14.01.2015 17:02 4,3 C 2,8 C 87 % 1011,5 hPa 0,0 l/m 0 min 0 min 0 W/m 27,2 km/h (4 Bft)
14.01.2015 17:04 4,3 C 2,8 C 87 % 1011,5 hPa 0,0 l/m 0 min 0 min 0 W/m 29,3 km/h (5 Bft)
14.01.2015 17:06 4,3 C 2,8 C 87 % 1011,5 hPa 0,0 l/m 0 min 0 min 0 W/m 29,3 km/h (5 Bft)
14.01.2015 17:08 4,3 C 2,8 C 87 % 1011,6 hPa 0,0 l/m 0 min 0 min 0 W/m 31,4 km/h (5 Bft)
14.01.2015 17:10 4,3 C 2,8 C 87 % 1011,6 hPa 0,0 l/m 0 min 0 min 0 W/m 27,2 km/h (4 Bft)
14.01.2015 17:12 4,3 C 2,8 C 87 % 1011,6 hPa 0,0 l/m 0 min 0 min 0 W/m 31,4 km/h (5 Bft)
14.01.2015 17:14 4,3 C 2,8 C 87 % 1011,7 hPa 0,0 l/m 0 min 0 min 0 W/m 27,2 km/h (4 Bft)
14.01.2015 17:16 4,3 C 2,8 C 87 % 1011,7 hPa 0,0 l/m 0 min 0 min 0 W/m 23,0 km/h (4 Bft)
14.01.2015 17:18 4,3 C 2,2 C 87 % 1011,9 hPa 0,0 l/m 0 min 0 min 0 W/m 27,2 km/h (4 Bft)
14.01.2015 17:20 4,3 C 2,2 C 87 % 1011,8 hPa 0,0 l/m 0 min 0 min 0 W/m 23,0 km/h (4 Bft)
14.01.2015 17:22 4,3 C 2,2 C 86 % 1011,8 hPa 0,0 l/m 0 min 0 min 0 W/m 20,9 km/h (4 Bft)
14.01.2015 17:24 4,2 C 2,2 C 86 % 1011,8 hPa 0,0 l/m 0 min 0 min 0 W/m 31,4 km/h (5 Bft)
14.01.2015 17:26 4,2 C 2,2 C 86 % 1011,9 hPa 0,0 l/m 0 min 0 min 0 W/m 27,2 km/h (4 Bft)
14.01.2015 17:28 4,2 C 2,2 C 86 % 1012,0 hPa 0,0 l/m 0 min 0 min 0 W/m 29,3 km/h (5 Bft)
14.01.2015 17:30 4,1 C 2,2 C 86 % 1012,0 hPa 0,0 l/m 0 min 0 min 0 W/m 23,0 km/h (4 Bft)
14.01.2015 17:32 4,1 C 2,2 C 86 % 1012,1 hPa 0,0 l/m 0 min 0 min 0 W/m 20,9 km/h (4 Bft)
14.01.2015 17:34 4,1 C 2,2 C 86 % 1012,1 hPa 0,0 l/m 0 min 0 min 0 W/m 20,9 km/h (4 Bft)
14.01.2015 17:36 4,0 C 2,2 C 86 % 1012,2 hPa 0,0 l/m 0 min 0 min 0 W/m 25,1 km/h (4 Bft)
14.01.2015 17:38 4,0 C 2,2 C 86 % 1012,3 hPa 0,0 l/m 0 min 0 min 0 W/m 31,4 km/h (5 Bft)
14.01.2015 17:40 3,9 C 2,2 C 86 % 1012,3 hPa 0,0 l/m 0 min 0 min 0 W/m 27,2 km/h (4 Bft)
14.01.2015 17:42 3,9 C 2,2 C 86 % 1012,3 hPa 0,0 l/m 0 min 0 min 0 W/m 20,9 km/h (4 Bft)
14.01.2015 17:44 3,9 C 2,2 C 86 % 1012,4 hPa 0,0 l/m 0 min 0 min 0 W/m 27,2 km/h (4 Bft)
14.01.2015 17:46 3,9 C 2,2 C 86 % 1012,4 hPa 0,0 l/m 0 min 0 min 0 W/m 18,8 km/h (3 Bft)
14.01.2015 17:48 3,9 C 2,2 C 86 % 1012,4 hPa 0,0 l/m 0 min 0 min 0 W/m 23,0 km/h (4 Bft)
14.01.2015 17:50 3,9 C 2,2 C 87 % 1012,5 hPa 0,0 l/m 0 min 0 min 0 W/m 20,9 km/h (4 Bft)
14.01.2015 17:52 3,8 C 2,2 C 87 % 1012,5 hPa 0,0 l/m 0 min 0 min 0 W/m 27,2 km/h (4 Bft)
14.01.2015 17:54 3,8 C 2,2 C 86 % 1012,6 hPa 0,0 l/m 0 min 0 min 0 W/m 29,3 km/h (5 Bft)
14.01.2015 17:56 3,8 C 2,2 C 87 % 1012,6 hPa 0,0 l/m 0 min 0 min 0 W/m 27,2 km/h (4 Bft)
14.01.2015 17:58 3,8 C 2,2 C 87 % 1012,6 hPa 0,0 l/m 0 min 0 min 0 W/m 31,4 km/h (5 Bft)
14.01.2015 18:00 3,8 C 2,2 C 87 % 1012,6 hPa 0,0 l/m 0 min 0 min 0 W/m 23,0 km/h (4 Bft)
14.01.2015 18:02 3,8 C 2,2 C 87 % 1012,6 hPa 0,0 l/m 0 min 0 min 0 W/m 23,0 km/h (4 Bft)
14.01.2015 18:06 3,8 C 2,2 C 87 % 1012,7 hPa 0,0 l/m 0 min 0 min 0 W/m 29,3 km/h (5 Bft)
14.01.2015 18:08 3,8 C 2,2 C 87 % 1012,7 hPa 0,0 l/m 0 min 0 min 0 W/m 20,9 km/h (4 Bft)
14.01.2015 18:10 3,8 C 2,2 C 87 % 1012,7 hPa 0,0 l/m 0 min 0 min 0 W/m 25,1 km/h (4 Bft)
14.01.2015 18:12 3,7 C 1,7 C 87 % 1012,7 hPa 0,0 l/m 0 min 0 min 0 W/m 23,0 km/h (4 Bft)
14.01.2015 18:14 3,7 C 1,7 C 87 % 1012,6 hPa 0,0 l/m 0 min 0 min 0 W/m 23,0 km/h (4 Bft)
14.01.2015 18:16 3,7 C 1,7 C 87 % 1012,7 hPa 0,0 l/m 0 min 0 min 0 W/m 18,8 km/h (3 Bft)
14.01.2015 18:18 3,7 C 1,7 C 87 % 1012,6 hPa 0,0 l/m 0 min 0 min 0 W/m 16,7 km/h (3 Bft)
14.01.2015 18:20 3,7 C 1,7 C 87 % 1012,6 hPa 0,0 l/m 0 min 0 min 0 W/m 27,2 km/h (4 Bft)
14.01.2015 18:22 3,7 C 1,7 C 87 % 1012,7 hPa 0,0 l/m 0 min 0 min 0 W/m 18,8 km/h (3 Bft)
14.01.2015 18:24 3,7 C 1,7 C 87 % 1012,7 hPa 0,0 l/m 0 min 0 min 0 W/m 16,7 km/h (3 Bft)
14.01.2015 18:26 3,7 C 1,7 C 87 % 1012,7 hPa 0,0 l/m 0 min 0 min 0 W/m 16,7 km/h (3 Bft)
14.01.2015 18:28 3,7 C 1,7 C 87 % 1012,8 hPa 0,0 l/m 0 min 0 min 0 W/m 18,8 km/h (3 Bft)
14.01.2015 18:30 3,7 C 1,7 C 87 % 1012,9 hPa 0,0 l/m 0 min 0 min 0 W/m 18,8 km/h (3 Bft)
14.01.2015 18:32 3,7 C 1,7 C 87 % 1013,0 hPa 0,0 l/m 0 min 0 min 0 W/m 18,8 km/h (3 Bft)
14.01.2015 18:34 3,6 C 1,7 C 87 % 1013,0 hPa 0,0 l/m 0 min 0 min 0 W/m 20,9 km/h (4 Bft)
14.01.2015 18:36 3,6 C 1,7 C 87 % 1013,0 hPa 0,0 l/m 0 min 0 min 0 W/m 16,7 km/h (3 Bft)
14.01.2015 18:38 3,6 C 1,7 C 87 % 1013,0 hPa 0,0 l/m 0 min 0 min 0 W/m 16,7 km/h (3 Bft)
14.01.2015 18:40 3,6 C 1,7 C 87 % 1013,0 hPa 0,0 l/m 0 min 0 min 0 W/m 10,5 km/h (2 Bft)
14.01.2015 18:42 3,6 C 1,7 C 87 % 1013,0 hPa 0,0 l/m 0 min 0 min 0 W/m 14,6 km/h (3 Bft)
14.01.2015 18:44 3,6 C 1,7 C 87 % 1013,0 hPa 0,0 l/m 0 min 0 min 0 W/m 18,8 km/h (3 Bft)
14.01.2015 18:46 3,6 C 1,7 C 87 % 1013,0 hPa 0,0 l/m 0 min 0 min 0 W/m 27,2 km/h (4 Bft)
14.01.2015 18:48 3,5 C 1,7 C 87 % 1013,1 hPa 0,0 l/m 0 min 0 min 0 W/m 23,0 km/h (4 Bft)
14.01.2015 18:50 3,5 C 1,7 C 87 % 1013,1 hPa 0,0 l/m 0 min 0 min 0 W/m 18,8 km/h (3 Bft)
14.01.2015 18:52 3,5 C 1,7 C 87 % 1013,2 hPa 0,0 l/m 0 min 0 min 0 W/m 16,7 km/h (3 Bft)
14.01.2015 18:54 3,5 C 1,7 C 87 % 1013,2 hPa 0,0 l/m 0 min 0 min 0 W/m 23,0 km/h (4 Bft)
14.01.2015 18:56 3,5 C 1,7 C 87 % 1013,2 hPa 0,0 l/m 0 min 0 min 0 W/m 16,7 km/h (3 Bft)
14.01.2015 18:58 3,4 C 1,7 C 88 % 1013,3 hPa 0,0 l/m 0 min 0 min 0 W/m 16,7 km/h (3 Bft)
14.01.2015 19:00 3,4 C 1,7 C 88 % 1013,2 hPa 0,0 l/m 0 min 0 min 0 W/m 16,7 km/h (3 Bft)
14.01.2015 19:02 3,4 C 1,7 C 88 % 1013,2 hPa 0,0 l/m 0 min 0 min 0 W/m 25,1 km/h (4 Bft)
14.01.2015 19:04 3,4 C 1,7 C 88 % 1013,3 hPa 0,0 l/m 0 min 0 min 0 W/m 14,6 km/h (3 Bft)
14.01.2015 19:06 3,4 C 1,7 C 88 % 1013,2 hPa 0,0 l/m 0 min 0 min 0 W/m 18,8 km/h (3 Bft)
14.01.2015 19:08 3,4 C 1,7 C 88 % 1013,2 hPa 0,0 l/m 0 min 0 min 0 W/m 18,8 km/h (3 Bft)
14.01.2015 19:10 3,4 C 1,7 C 88 % 1013,1 hPa 0,0 l/m 0 min 0 min 0 W/m 20,9 km/h (4 Bft)
14.01.2015 19:12 3,4 C 1,7 C 88 % 1013,1 hPa 0,0 l/m 0 min 0 min 0 W/m 18,8 km/h (3 Bft)
14.01.2015 19:14 3,3 C 1,7 C 88 % 1013,1 hPa 0,0 l/m 0 min 0 min 0 W/m 16,7 km/h (3 Bft)
14.01.2015 19:16 3,3 C 1,7 C 88 % 1013,1 hPa 0,0 l/m 0 min 0 min 0 W/m 23,0 km/h (4 Bft)
14.01.2015 19:18 3,3 C 1,7 C 88 % 1013,1 hPa 0,0 l/m 0 min 0 min 0 W/m 20,9 km/h (4 Bft)
14.01.2015 19:20 3,3 C 1,7 C 88 % 1013,1 hPa 0,0 l/m 0 min 0 min 0 W/m 12,6 km/h (3 Bft)
14.01.2015 19:22 3,3 C 1,7 C 88 % 1013,1 hPa 0,0 l/m 0 min 0 min 0 W/m 18,8 km/h (3 Bft)
14.01.2015 19:24 3,3 C 1,7 C 88 % 1013,1 hPa 0,0 l/m 0 min 0 min 0 W/m 18,8 km/h (3 Bft)
14.01.2015 19:26 3,3 C 1,7 C 89 % 1013,2 hPa 0,0 l/m 0 min 0 min 0 W/m 14,6 km/h (3 Bft)
14.01.2015 19:28 3,2 C 1,7 C 88 % 1013,2 hPa 0,0 l/m 0 min 0 min 0 W/m 20,9 km/h (4 Bft)
14.01.2015 19:30 3,2 C 1,7 C 89 % 1013,2 hPa 0,0 l/m 0 min 0 min 0 W/m 20,9 km/h (4 Bft)
14.01.2015 19:32 3,2 C 1,7 C 89 % 1013,2 hPa 0,0 l/m 0 min 0 min 0 W/m 20,9 km/h (4 Bft)
14.01.2015 19:34 3,2 C 1,7 C 89 % 1013,3 hPa 0,0 l/m 0 min 0 min 0 W/m 29,3 km/h (5 Bft)
14.01.2015 19:36 3,2 C 1,7 C 89 % 1013,2 hPa 0,0 l/m 0 min 0 min 0 W/m 16,7 km/h (3 Bft)
14.01.2015 19:38 3,2 C 1,7 C 89 % 1013,2 hPa 0,0 l/m 0 min 0 min 0 W/m 16,7 km/h (3 Bft)
14.01.2015 19:40 3,2 C 1,7 C 89 % 1013,2 hPa 0,0 l/m 0 min 0 min 0 W/m 16,7 km/h (3 Bft)
14.01.2015 19:42 3,2 C 1,7 C 89 % 1013,2 hPa 0,0 l/m 0 min 0 min 0 W/m 16,7 km/h (3 Bft)
14.01.2015 19:44 3,2 C 1,7 C 89 % 1013,2 hPa 0,0 l/m 0 min 0 min 0 W/m 23,0 km/h (4 Bft)
14.01.2015 19:46 3,1 C 1,7 C 89 % 1013,2 hPa 0,0 l/m 0 min 0 min 0 W/m 20,9 km/h (4 Bft)
14.01.2015 19:48 3,1 C 1,7 C 89 % 1013,1 hPa 0,0 l/m 0 min 0 min 0 W/m 16,7 km/h (3 Bft)
14.01.2015 19:50 3,1 C 1,7 C 89 % 1013,1 hPa 0,0 l/m 0 min 0 min 0 W/m 20,9 km/h (4 Bft)
14.01.2015 19:52 3,1 C 1,7 C 89 % 1013,2 hPa 0,0 l/m 0 min 0 min 0 W/m 23,0 km/h (4 Bft)
14.01.2015 19:54 3,1 C 1,7 C 89 % 1013,2 hPa 0,0 l/m 0 min 0 min 0 W/m 27,2 km/h (4 Bft)
14.01.2015 19:56 3,1 C 1,7 C 89 % 1013,2 hPa 0,0 l/m 0 min 0 min 0 W/m 23,0 km/h (4 Bft)
14.01.2015 19:58 3,1 C 1,7 C 89 % 1013,2 hPa 0,0 l/m 0 min 0 min 0 W/m 20,9 km/h (4 Bft)
14.01.2015 20:00 3,1 C 1,7 C 89 % 1013,1 hPa 0,0 l/m 0 min 0 min 0 W/m 23,0 km/h (4 Bft)
14.01.2015 20:02 3,1 C 1,7 C 89 % 1013,2 hPa 0,0 l/m 0 min 0 min 0 W/m 18,8 km/h (3 Bft)
14.01.2015 20:04 3,1 C 1,7 C 90 % 1013,3 hPa 0,0 l/m 0 min 0 min 0 W/m 20,9 km/h (4 Bft)
14.01.2015 20:06 3,1 C 1,7 C 90 % 1013,3 hPa 0,0 l/m 0 min 0 min 0 W/m 20,9 km/h (4 Bft)
14.01.2015 20:08 3,0 C 1,7 C 90 % 1013,3 hPa 0,0 l/m 0 min 0 min 0 W/m 20,9 km/h (4 Bft)
14.01.2015 20:10 3,1 C 1,7 C 90 % 1013,3 hPa 0,0 l/m 0 min 0 min 0 W/m 25,1 km/h (4 Bft)
14.01.2015 20:12 3,0 C 1,7 C 90 % 1013,3 hPa 0,0 l/m 0 min 0 min 0 W/m 20,9 km/h (4 Bft)
14.01.2015 20:14 3,0 C 1,7 C 90 % 1013,3 hPa 0,0 l/m 0 min 0 min 0 W/m 16,7 km/h (3 Bft)
14.01.2015 20:16 3,0 C 1,7 C 90 % 1013,3 hPa 0,0 l/m 0 min 0 min 0 W/m 20,9 km/h (4 Bft)
14.01.2015 20:18 3,0 C 1,7 C 90 % 1013,3 hPa 0,0 l/m 0 min 0 min 0 W/m 16,7 km/h (3 Bft)
14.01.2015 20:20 3,0 C 1,7 C 90 % 1013,4 hPa 0,0 l/m 0 min 0 min 0 W/m 18,8 km/h (3 Bft)
14.01.2015 20:22 3,0 C 1,7 C 90 % 1013,4 hPa 0,0 l/m 0 min 0 min 0 W/m 16,7 km/h (3 Bft)
14.01.2015 20:24 3,0 C 1,7 C 90 % 1013,3 hPa 0,0 l/m 0 min 0 min 0 W/m 20,9 km/h (4 Bft)
14.01.2015 20:26 3,0 C 1,7 C 90 % 1013,3 hPa 0,0 l/m 0 min 0 min 0 W/m 16,7 km/h (3 Bft)
14.01.2015 20:28 3,0 C 1,7 C 90 % 1013,3 hPa 0,0 l/m 0 min 0 min 0 W/m 16,7 km/h (3 Bft)
14.01.2015 20:30 2,9 C 1,7 C 90 % 1013,3 hPa 0,0 l/m 0 min 0 min 0 W/m 18,8 km/h (3 Bft)
14.01.2015 20:32 2,9 C 1,7 C 90 % 1013,3 hPa 0,0 l/m 0 min 0 min 0 W/m 12,6 km/h (3 Bft)
14.01.2015 20:34 2,9 C 1,7 C 90 % 1013,3 hPa 0,0 l/m 0 min 0 min 0 W/m 20,9 km/h (4 Bft)
14.01.2015 20:36 2,9 C 1,1 C 90 % 1013,3 hPa 0,0 l/m 0 min 0 min 0 W/m 14,6 km/h (3 Bft)
14.01.2015 20:38 2,9 C 1,7 C 90 % 1013,3 hPa 0,0 l/m 0 min 0 min 0 W/m 14,6 km/h (3 Bft)
14.01.2015 20:40 2,9 C 1,7 C 90 % 1013,3 hPa 0,0 l/m 0 min 0 min 0 W/m 20,9 km/h (4 Bft)
14.01.2015 20:42 2,9 C 1,7 C 90 % 1013,3 hPa 0,0 l/m 0 min 0 min 0 W/m 20,9 km/h (4 Bft)
14.01.2015 20:44 2,9 C 1,7 C 90 % 1013,2 hPa 0,0 l/m 0 min 0 min 0 W/m 14,6 km/h (3 Bft)
14.01.2015 20:46 2,9 C 1,7 C 90 % 1013,2 hPa 0,0 l/m 0 min 0 min 0 W/m 16,7 km/h (3 Bft)
14.01.2015 20:48 2,9 C 1,7 C 90 % 1013,2 hPa 0,0 l/m 0 min 0 min 0 W/m 16,7 km/h (3 Bft)
14.01.2015 20:50 2,9 C 1,7 C 90 % 1013,2 hPa 0,0 l/m 0 min 0 min 0 W/m 14,6 km/h (3 Bft)
14.01.2015 20:52 2,9 C 1,7 C 90 % 1013,2 hPa 0,0 l/m 0 min 0 min 0 W/m 14,6 km/h (3 Bft)
14.01.2015 20:54 2,9 C 1,7 C 90 % 1013,3 hPa 0,0 l/m 0 min 0 min 0 W/m 16,7 km/h (3 Bft)
14.01.2015 20:56 2,9 C 1,7 C 90 % 1013,2 hPa 0,0 l/m 0 min 0 min 0 W/m 14,6 km/h (3 Bft)
14.01.2015 20:58 2,9 C 1,7 C 90 % 1013,3 hPa 0,0 l/m 0 min 0 min 0 W/m 12,6 km/h (3 Bft)
14.01.2015 21:00 3,0 C 1,7 C 90 % 1013,3 hPa 0,0 l/m 0 min 0 min 0 W/m 29,3 km/h (5 Bft)
14.01.2015 21:02 3,0 C 1,7 C 90 % 1013,2 hPa 0,0 l/m 0 min 0 min 0 W/m 23,0 km/h (4 Bft)
14.01.2015 21:04 3,0 C 1,7 C 90 % 1013,2 hPa 0,0 l/m 0 min 0 min 0 W/m 16,7 km/h (3 Bft)
14.01.2015 21:06 3,1 C 1,7 C 90 % 1013,3 hPa 0,0 l/m 0 min 0 min 0 W/m 20,9 km/h (4 Bft)
14.01.2015 21:08 3,1 C 2,2 C 90 % 1013,2 hPa 0,0 l/m 0 min 0 min 0 W/m 25,1 km/h (4 Bft)
14.01.2015 21:10 3,1 C 2,2 C 90 % 1013,2 hPa 0,0 l/m 0 min 0 min 0 W/m 16,7 km/h (3 Bft)
14.01.2015 21:12 3,1 C 2,2 C 89 % 1013,3 hPa 0,0 l/m 0 min 0 min 0 W/m 20,9 km/h (4 Bft)
14.01.2015 21:14 3,1 C 1,7 C 89 % 1013,2 hPa 0,0 l/m 0 min 0 min 0 W/m 16,7 km/h (3 Bft)
14.01.2015 21:16 3,2 C 2,2 C 90 % 1013,1 hPa 0,0 l/m 0 min 0 min 0 W/m 20,9 km/h (4 Bft)
14.01.2015 21:18 3,2 C 2,2 C 90 % 1013,2 hPa 0,0 l/m 0 min 0 min 0 W/m 16,7 km/h (3 Bft)
14.01.2015 21:20 3,2 C 2,2 C 90 % 1013,2 hPa 0,0 l/m 0 min 0 min 0 W/m 25,1 km/h (4 Bft)
14.01.2015 21:22 3,2 C 2,2 C 89 % 1013,2 hPa 0,0 l/m 0 min 0 min 0 W/m 16,7 km/h (3 Bft)
14.01.2015 21:24 3,2 C 2,2 C 89 % 1013,1 hPa 0,0 l/m 0 min 0 min 0 W/m 20,9 km/h (4 Bft)
14.01.2015 21:26 3,3 C 2,2 C 89 % 1013,1 hPa 0,0 l/m 0 min 0 min 0 W/m 14,6 km/h (3 Bft)
14.01.2015 21:28 3,3 C 2,2 C 89 % 1013,1 hPa 0,0 l/m 0 min 0 min 0 W/m 16,7 km/h (3 Bft)
14.01.2015 21:30 3,3 C 2,2 C 89 % 1013,0 hPa 0,0 l/m 0 min 0 min 0 W/m 25,1 km/h (4 Bft)
14.01.2015 21:32 3,3 C 2,2 C 89 % 1013,2 hPa 0,0 l/m 0 min 0 min 0 W/m 12,6 km/h (3 Bft)
14.01.2015 21:34 3,3 C 2,2 C 89 % 1013,2 hPa 0,0 l/m 0 min 0 min 0 W/m 20,9 km/h (4 Bft)
14.01.2015 21:36 3,4 C 2,2 C 89 % 1013,2 hPa 0,0 l/m 0 min 0 min 0 W/m 25,1 km/h (4 Bft)
14.01.2015 21:38 3,4 C 2,2 C 89 % 1013,1 hPa 0,0 l/m 0 min 0 min 0 W/m 18,8 km/h (3 Bft)
14.01.2015 21:40 3,4 C 2,2 C 89 % 1013,0 hPa 0,0 l/m 0 min 0 min 0 W/m 23,0 km/h (4 Bft)
14.01.2015 21:42 3,4 C 2,2 C 89 % 1013,1 hPa 0,0 l/m 0 min 0 min 0 W/m 16,7 km/h (3 Bft)
14.01.2015 21:44 3,4 C 2,2 C 89 % 1013,1 hPa 0,0 l/m 0 min 0 min 0 W/m 20,9 km/h (4 Bft)
14.01.2015 21:46 3,5 C 2,2 C 89 % 1013,0 hPa 0,0 l/m 0 min 0 min 0 W/m 20,9 km/h (4 Bft)
14.01.2015 21:48 3,5 C 2,2 C 89 % 1013,0 hPa 0,0 l/m 0 min 0 min 0 W/m 23,0 km/h (4 Bft)
14.01.2015 21:50 3,6 C 2,2 C 89 % 1013,0 hPa 0,0 l/m 0 min 0 min 0 W/m 27,2 km/h (4 Bft)
14.01.2015 21:52 3,6 C 2,2 C 89 % 1012,9 hPa 0,0 l/m 0 min 0 min 0 W/m 16,7 km/h (3 Bft)
14.01.2015 21:54 3,6 C 2,2 C 89 % 1012,9 hPa 0,0 l/m 0 min 0 min 0 W/m 14,6 km/h (3 Bft)
14.01.2015 21:56 3,6 C 2,2 C 89 % 1013,0 hPa 0,0 l/m 0 min 0 min 0 W/m 14,6 km/h (3 Bft)
14.01.2015 21:58 3,6 C 2,2 C 89 % 1012,9 hPa 0,0 l/m 0 min 0 min 0 W/m 20,9 km/h (4 Bft)
14.01.2015 22:00 3,6 C 2,2 C 89 % 1012,9 hPa 0,0 l/m 0 min 0 min 0 W/m 18,8 km/h (3 Bft)
14.01.2015 22:02 3,6 C 2,2 C 89 % 1012,8 hPa 0,0 l/m 0 min 0 min 0 W/m 20,9 km/h (4 Bft)
14.01.2015 22:04 3,6 C 2,2 C 89 % 1012,8 hPa 0,0 l/m 0 min 0 min 0 W/m 23,0 km/h (4 Bft)
14.01.2015 22:06 3,6 C 2,2 C 88 % 1012,8 hPa 0,0 l/m 0 min 0 min 0 W/m 23,0 km/h (4 Bft)
14.01.2015 22:08 3,6 C 2,2 C 88 % 1012,7 hPa 0,0 l/m 0 min 0 min 0 W/m 18,8 km/h (3 Bft)
14.01.2015 22:10 3,6 C 2,2 C 88 % 1012,7 hPa 0,0 l/m 0 min 0 min 0 W/m 20,9 km/h (4 Bft)
14.01.2015 22:12 3,6 C 1,7 C 88 % 1012,6 hPa 0,0 l/m 0 min 0 min 0 W/m 16,7 km/h (3 Bft)
14.01.2015 22:14 3,6 C 1,7 C 88 % 1012,7 hPa 0,0 l/m 0 min 0 min 0 W/m 25,1 km/h (4 Bft)
14.01.2015 22:16 3,6 C 1,7 C 88 % 1012,7 hPa 0,0 l/m 0 min 0 min 0 W/m 25,1 km/h (4 Bft)
14.01.2015 22:18 3,6 C 1,7 C 88 % 1012,7 hPa 0,0 l/m 0 min 0 min 0 W/m 27,2 km/h (4 Bft)
14.01.2015 22:20 3,6 C 1,7 C 88 % 1012,6 hPa 0,0 l/m 0 min 0 min 0 W/m 23,0 km/h (4 Bft)
14.01.2015 22:22 3,6 C 2,2 C 88 % 1012,6 hPa 0,0 l/m 0 min 0 min 0 W/m 20,9 km/h (4 Bft)
14.01.2015 22:24 3,5 C 2,2 C 88 % 1012,6 hPa 0,0 l/m 0 min 0 min 0 W/m 23,0 km/h (4 Bft)
14.01.2015 22:26 3,5 C 2,2 C 88 % 1012,5 hPa 0,0 l/m 0 min 0 min 0 W/m 16,7 km/h (3 Bft)
14.01.2015 22:28 3,5 C 2,2 C 88 % 1012,5 hPa 0,0 l/m 0 min 0 min 0 W/m 12,6 km/h (3 Bft)
14.01.2015 22:30 3,5 C 2,2 C 88 % 1012,5 hPa 0,0 l/m 0 min 0 min 0 W/m 14,6 km/h (3 Bft)
14.01.2015 22:32 3,5 C 2,2 C 88 % 1012,5 hPa 0,0 l/m 0 min 0 min 0 W/m 18,8 km/h (3 Bft)
14.01.2015 22:34 3,5 C 2,2 C 88 % 1012,5 hPa 0,0 l/m 0 min 0 min 0 W/m 16,7 km/h (3 Bft)
14.01.2015 22:36 3,5 C 2,2 C 88 % 1012,6 hPa 0,0 l/m 0 min 0 min 0 W/m 14,6 km/h (3 Bft)
14.01.2015 22:38 3,5 C 2,2 C 88 % 1012,5 hPa 0,0 l/m 0 min 0 min 0 W/m 18,8 km/h (3 Bft)
14.01.2015 22:40 3,5 C 2,2 C 88 % 1012,4 hPa 0,0 l/m 0 min 0 min 0 W/m 23,0 km/h (4 Bft)
14.01.2015 22:42 3,5 C 2,2 C 88 % 1012,4 hPa 0,0 l/m 0 min 0 min 0 W/m 18,8 km/h (3 Bft)
14.01.2015 22:44 3,5 C 2,2 C 88 % 1012,4 hPa 0,0 l/m 0 min 0 min 0 W/m 18,8 km/h (3 Bft)
14.01.2015 22:46 3,5 C 2,2 C 88 % 1012,5 hPa 0,0 l/m 0 min 0 min 0 W/m 23,0 km/h (4 Bft)
14.01.2015 22:48 3,6 C 2,2 C 88 % 1012,3 hPa 0,0 l/m 0 min 0 min 0 W/m 14,6 km/h (3 Bft)
14.01.2015 22:50 3,6 C 2,2 C 88 % 1012,4 hPa 0,0 l/m 0 min 0 min 0 W/m 23,0 km/h (4 Bft)
14.01.2015 22:52 3,6 C 2,2 C 88 % 1012,3 hPa 0,0 l/m 0 min 0 min 0 W/m 18,8 km/h (3 Bft)
14.01.2015 22:54 3,6 C 2,2 C 88 % 1012,1 hPa 0,0 l/m 0 min 0 min 0 W/m 14,6 km/h (3 Bft)
14.01.2015 22:56 3,6 C 2,2 C 88 % 1012,0 hPa 0,0 l/m 0 min 0 min 0 W/m 23,0 km/h (4 Bft)
14.01.2015 22:58 3,6 C 2,2 C 88 % 1012,1 hPa 0,0 l/m 0 min 0 min 0 W/m 23,0 km/h (4 Bft)
14.01.2015 23:00 3,7 C 2,2 C 88 % 1011,9 hPa 0,0 l/m 0 min 0 min 0 W/m 18,8 km/h (3 Bft)
14.01.2015 23:02 3,7 C 2,2 C 88 % 1011,8 hPa 0,0 l/m 0 min 0 min 0 W/m 25,1 km/h (4 Bft)
14.01.2015 23:04 3,7 C 2,2 C 88 % 1011,8 hPa 0,0 l/m 0 min 0 min 0 W/m 18,8 km/h (3 Bft)
14.01.2015 23:06 3,7 C 2,2 C 88 % 1011,8 hPa 0,0 l/m 0 min 0 min 0 W/m 20,9 km/h (4 Bft)
14.01.2015 23:08 3,7 C 2,2 C 88 % 1011,5 hPa 0,0 l/m 0 min 0 min 0 W/m 27,2 km/h (4 Bft)
14.01.2015 23:10 3,7 C 2,2 C 88 % 1011,2 hPa 0,0 l/m 0 min 0 min 0 W/m 23,0 km/h (4 Bft)
14.01.2015 23:12 3,7 C 2,8 C 88 % 1011,1 hPa 0,0 l/m 0 min 0 min 0 W/m 23,0 km/h (4 Bft)
14.01.2015 23:14 3,8 C 2,8 C 88 % 1011,3 hPa 0,0 l/m 0 min 0 min 0 W/m 16,7 km/h (3 Bft)
14.01.2015 23:16 3,8 C 2,8 C 88 % 1011,5 hPa 0,0 l/m 0 min 0 min 0 W/m 29,3 km/h (5 Bft)
14.01.2015 23:18 3,8 C 2,8 C 88 % 1011,4 hPa 0,0 l/m 0 min 0 min 0 W/m 18,8 km/h (3 Bft)
14.01.2015 23:20 3,8 C 2,8 C 88 % 1011,5 hPa 0,0 l/m 0 min 0 min 0 W/m 23,0 km/h (4 Bft)
14.01.2015 23:22 3,9 C 2,8 C 87 % 1011,4 hPa 0,0 l/m 0 min 0 min 0 W/m 20,9 km/h (4 Bft)
14.01.2015 23:24 3,9 C 2,8 C 87 % 1011,5 hPa 0,0 l/m 0 min 0 min 0 W/m 31,4 km/h (5 Bft)
14.01.2015 23:26 3,9 C 2,8 C 87 % 1011,4 hPa 0,0 l/m 0 min 0 min 0 W/m 25,1 km/h (4 Bft)
14.01.2015 23:28 3,9 C 2,8 C 87 % 1011,5 hPa 0,0 l/m 0 min 0 min 0 W/m 23,0 km/h (4 Bft)
14.01.2015 23:30 4,0 C 2,8 C 87 % 1011,4 hPa 0,0 l/m 0 min 0 min 0 W/m 25,1 km/h (4 Bft)
14.01.2015 23:32 4,0 C 2,8 C 87 % 1011,4 hPa 0,0 l/m 0 min 0 min 0 W/m 23,0 km/h (4 Bft)
14.01.2015 23:34 4,0 C 2,8 C 87 % 1011,3 hPa 0,0 l/m 0 min 0 min 0 W/m 25,1 km/h (4 Bft)
14.01.2015 23:36 4,0 C 2,8 C 87 % 1011,3 hPa 0,0 l/m 0 min 0 min 0 W/m 20,9 km/h (4 Bft)
14.01.2015 23:38 4,0 C 2,8 C 87 % 1011,3 hPa 0,0 l/m 0 min 0 min 0 W/m 27,2 km/h (4 Bft)
14.01.2015 23:40 4,1 C 2,8 C 86 % 1011,3 hPa 0,0 l/m 0 min 0 min 0 W/m 20,9 km/h (4 Bft)
14.01.2015 23:42 4,1 C 2,8 C 86 % 1011,2 hPa 0,0 l/m 0 min 0 min 0 W/m 23,0 km/h (4 Bft)
14.01.2015 23:44 4,1 C 2,8 C 86 % 1011,2 hPa 0,0 l/m 0 min 0 min 0 W/m 23,0 km/h (4 Bft)
14.01.2015 23:46 4,1 C 2,8 C 86 % 1011,1 hPa 0,0 l/m 0 min 0 min 0 W/m 29,3 km/h (5 Bft)
14.01.2015 23:48 4,1 C 2,2 C 86 % 1011,1 hPa 0,0 l/m 0 min 0 min 0 W/m 27,2 km/h (4 Bft)
14.01.2015 23:50 4,1 C 2,2 C 86 % 1011,0 hPa 0,0 l/m 0 min 0 min 0 W/m 27,2 km/h (4 Bft)
14.01.2015 23:52 4,1 C 2,8 C 86 % 1011,0 hPa 0,0 l/m 0 min 0 min 0 W/m 27,2 km/h (4 Bft)
14.01.2015 23:54 4,1 C 2,2 C 86 % 1010,9 hPa 0,0 l/m 0 min 0 min 0 W/m 25,1 km/h (4 Bft)
14.01.2015 23:56 4,1 C 2,2 C 86 % 1010,9 hPa 0,0 l/m 0 min 0 min 0 W/m 23,0 km/h (4 Bft)
14.01.2015 23:58 4,1 C 2,8 C 86 % 1010,9 hPa 0,0 l/m 0 min 0 min 0 W/m 29,3 km/h (5 Bft)
_ Min-Zeit 20:28 20:36 01:24 02:34 - - - - 18:40
Minimum _ 2,9 C 1,1 C 83 % 1003,9 hPa - - - - 10,5 km/h (2 Bft)
_ Max-Zeit 01:24 01:00 04:04 20:20 02:58 08:48 02:54 13:58 12:14
Maximum _ 7,6 C 6,1 C 94 % 1013,4 hPa 0,4 l/m 2 min 2 min 188 W/m 64,9 km/h
SW (8 Bft)
Durchschnitt _ 4,4 C 2,9 C 89 % 1008,9 hPa #5,0 l/m #1:30 h #1:34 h 60 W/m 27,7 km/h (4 Bft)
© 2015 W. Hausmann